Welcome to Crazy Orc, l'antre du jeu de rôles à Lyon. Please login or sign up.

19 Avril 2024 à 02:45:59

Login with username, password and session length

Crazy Orc, l'antre du jeu de rôles à Lyon - Centre de statistiques

Statistiques générales

Total des membres:
786
Total des messages:
98433
Total des sujets:
4311
Total des catégories:
4
Membres en ligne:
350
Connexions simultanées:
808 - 21 Janvier 2020 à 20:55:59
En ligne aujourd'hui:
373
Total des pages vues:
42203036
Moyenne des inscriptions par jour:
0.26
Moyenne des messages par jour:
22.76
Moyenne des sujets par jour:
1.04
Total des sections:
40
Dernier membre:
BomberSquad
Moyenne d'utilisateurs connectés par jour:
53.52
Statistiques des sexes:
Ne pas afficher: 363
Masculin: 353
Féminin: 70
Pages vues en moyenne par jour:
6749.25

Top 10 des posteurs

ManuDevil
7064
GroumpH
5098
nunch
3857
LeDupontesque
3084
jules
3026
Mandy
2883
Scratchy
2766
MAO
2493
snake
1947
Le0
1878

Top lanceurs de sujets

nunch
600
Morithil
454
ManuDevil
292
GroumpH
246
Scratchy
132
MAO
110
LeDupontesque
106
jules
99
snake
92
CCCP
86

Le plus de temps en ligne

Mandy
133 j 19 h 59 m
GroumpH
112 j 9 h 16 m
CCCP
88 j 22 h 12 m
Nukeflow
73 j 8 h 19 m
ManuDevil
69 j 10 h 0 m
Felipe
61 j 12 h 19 m
dao
56 j 17 h 58 m
nunch
49 j 1 h 47 m
Patate
43 j 7 h 14 m
Rh
42 j 23 h 32 m

Les utilisateurs les plus aimés

ManuDevil
78
Arkana31
73
Morithil
25
MJulien
24
Phil
22
LeDupontesque
22
Lionhell
20
Patate
18
DeReel (il)
16
Haley Lektrik
12

Historique du forum (basé sur l'heure interne du forum)

Résumé annuel Nouveaux sujets Nouveaux messages Nouveaux membres Connexions simultanées Pages vues
* 2024 45 341 49 553 2899236
Avril 2024 2 34 4 422 391756
Mars 2024 14 105 12 553 672303
Février 2024 17 116 25 349 567612
Janvier 2024 12 86 8 301 1267565
2024-01-01 0 3 1 176 26290
2024-01-02 0 2 0 73 27682
2024-01-03 0 1 0 141 58787
2024-01-04 0 1 0 75 27645
2024-01-05 2 7 2 95 5376
2024-01-06 0 1 1 81 5729
2024-01-07 0 5 0 274 36707
2024-01-08 0 1 0 113 31398
2024-01-09 0 0 0 100 23629
2024-01-10 1 2 0 127 59280
2024-01-11 0 5 0 130 66073
2024-01-12 0 3 0 150 70475
2024-01-13 0 5 0 137 60693
2024-01-14 0 3 0 111 49196
2024-01-15 0 0 0 154 60176
2024-01-16 0 9 0 151 70691
2024-01-17 0 6 0 132 34747
2024-01-18 0 2 1 179 33269
2024-01-19 0 1 0 150 41664
2024-01-20 0 0 0 180 7271
2024-01-21 0 1 0 168 51468
2024-01-22 0 0 2 155 56069
2024-01-23 0 0 0 174 63172
2024-01-24 0 0 0 178 84056
2024-01-25 0 0 1 178 69243
2024-01-26 8 9 0 201 31447
2024-01-27 0 2 0 249 31179
2024-01-28 1 6 0 196 31110
2024-01-29 0 2 0 162 29933
2024-01-30 0 5 0 301 12636
2024-01-31 0 4 0 156 10474
* 2023 193 1234 127 260 5271275
Décembre 2023 17 64 5 260 1399734
Novembre 2023 12 123 14 217 909538
2023-11-01 0 0 0 159 15503
2023-11-02 0 2 1 129 13337
2023-11-03 0 3 0 114 14183
2023-11-04 0 1 0 21 27522
2023-11-05 0 1 0 15 4954
2023-11-06 0 1 1 72 7132
2023-11-07 0 18 1 33 12148
2023-11-08 0 3 1 117 18478
2023-11-09 1 6 1 137 26213
2023-11-10 0 6 1 147 37411
2023-11-11 6 15 2 151 46341
2023-11-12 0 5 0 195 51204
2023-11-13 0 0 0 199 34709
2023-11-14 1 3 1 112 44446
2023-11-15 0 13 0 118 26343
2023-11-16 0 2 0 101 19095
2023-11-17 0 4 1 82 16489
2023-11-18 2 2 3 123 9694
2023-11-19 0 0 0 74 34055
2023-11-20 0 2 0 117 40324
2023-11-21 0 3 0 121 41673
2023-11-22 0 5 0 146 36056
2023-11-23 2 11 0 120 39702
2023-11-24 0 12 0 165 45253
2023-11-25 0 1 0 217 42827
2023-11-26 0 1 0 127 33357
2023-11-27 0 1 1 160 35484
2023-11-28 0 0 0 144 38564
2023-11-29 0 1 0 169 46553
2023-11-30 0 1 0 203 50488
Octobre 2023 21 141 12 187 333148
Septembre 2023 19 182 18 138 366302
Août 2023 8 42 7 130 236673
Juillet 2023 6 39 4 140 269774
2023-07-01 0 1 0 94 6191
2023-07-02 1 1 0 75 8536
2023-07-03 0 2 0 90 5628
2023-07-04 0 1 0 90 8577
2023-07-05 0 1 0 90 5638
2023-07-06 0 0 0 86 9183
2023-07-07 0 2 0 109 7504
2023-07-08 0 1 0 115 8999
2023-07-09 2 7 0 129 16266
2023-07-10 0 1 0 121 12222
2023-07-11 0 2 0 129 12134
2023-07-12 0 5 0 104 12187
2023-07-13 0 2 0 93 12301
2023-07-14 0 0 0 107 11141
2023-07-15 0 0 0 103 10703
2023-07-16 0 0 0 110 12398
2023-07-17 0 0 0 101 12139
2023-07-18 0 0 0 101 10232
2023-07-19 0 0 0 140 9167
2023-07-20 0 1 1 69 8556
2023-07-21 0 0 1 101 6195
2023-07-22 1 2 0 79 8571
2023-07-23 0 1 0 19 3627
2023-07-24 1 4 1 68 7046
2023-07-25 0 0 0 57 4511
2023-07-26 1 1 1 120 5442
2023-07-27 0 0 0 91 9547
2023-07-28 0 3 0 94 7343
2023-07-29 0 0 0 24 4311
2023-07-30 0 1 0 84 6851
2023-07-31 0 0 0 85 6628
Juin 2023 23 109 10 159 303581
Mai 2023 23 124 16 182 262587
Avril 2023 19 159 11 174 284480
Mars 2023 13 86 6 155 330966
Février 2023 13 62 5 165 274947
Janvier 2023 19 103 19 148 299545
* 2022 183 1154 96 261 3778792
Décembre 2022 9 37 1 161 306381
Novembre 2022 16 103 6 261 350274
Octobre 2022 11 120 17 208 290108
Septembre 2022 17 115 6 258 357415
Août 2022 15 108 9 147 318817
2022-08-01 0 0 0 116 6843
2022-08-02 0 0 0 111 9274
2022-08-03 0 0 0 112 7595
2022-08-04 1 5 0 109 6193
2022-08-05 0 0 0 95 6361
2022-08-06 0 1 0 87 5804
2022-08-07 0 3 0 83 11749
2022-08-08 0 0 0 88 15704
2022-08-09 0 1 0 80 9660
2022-08-10 0 0 0 86 9352
2022-08-11 0 4 0 85 8513
2022-08-12 0 0 1 79 8042
2022-08-13 0 0 0 80 6219
2022-08-14 1 2 1 78 5982
2022-08-15 0 0 0 72 8920
2022-08-16 0 1 0 90 5805
2022-08-17 0 2 0 94 6057
2022-08-18 0 10 0 81 8447
2022-08-19 0 3 0 82 11675
2022-08-20 0 0 0 98 10849
2022-08-21 8 9 1 103 11267
2022-08-22 0 4 1 147 11819
2022-08-23 0 8 1 98 16038
2022-08-24 1 11 1 109 12745
2022-08-25 0 8 1 118 12740
2022-08-26 0 3 0 114 13536
2022-08-27 2 11 1 125 16331
2022-08-28 1 6 1 113 16216
2022-08-29 1 4 0 116 15342
2022-08-30 0 8 0 113 12550
2022-08-31 0 4 0 107 11189
Juillet 2022 13 69 4 208 308045
Juin 2022 14 76 4 62 333112
Mai 2022 16 118 8 91 339244
Avril 2022 18 133 12 61 254691
Mars 2022 15 123 8 65 281935
Février 2022 17 84 9 58 314588
Janvier 2022 22 68 12 70 324182
2022-01-01 0 0 0 39 10922
2022-01-02 4 6 0 38 11523
2022-01-03 0 2 0 51 9782
2022-01-04 0 4 0 43 7524
2022-01-05 1 2 1 35 10245
2022-01-06 2 2 0 36 8915
2022-01-07 0 0 0 55 8448
2022-01-08 0 1 1 38 9864
2022-01-09 0 0 0 42 10293
2022-01-10 3 4 1 47 13227
2022-01-11 0 0 0 50 10507
2022-01-12 0 1 0 70 33842
2022-01-13 0 3 0 43 9184
2022-01-14 0 2 0 43 12187
2022-01-15 0 1 0 39 10512
2022-01-16 1 2 2 38 12767
2022-01-17 1 4 2 45 10200
2022-01-18 0 1 0 42 11009
2022-01-19 0 2 0 38 9173
2022-01-20 1 2 1 50 7081
2022-01-21 0 0 0 44 5118
2022-01-22 0 2 0 51 8349
2022-01-23 1 4 1 53 6097
2022-01-24 6 8 0 42 9074
2022-01-25 0 0 0 52 9326
2022-01-26 0 2 0 67 7956
2022-01-27 1 6 1 49 9815
2022-01-28 0 1 0 58 10648
2022-01-29 1 3 1 37 10936
2022-01-30 0 3 1 37 10004
2022-01-31 0 0 0 41 9654
* 2021 129 756 53 338 4376522
Décembre 2021 8 37 0 129 661064
Novembre 2021 13 99 4 153 262314
Octobre 2021 20 208 15 159 298103
2021-10-01 0 1 0 56 6171
2021-10-02 0 9 1 86 9181
2021-10-03 1 4 1 72 8747
2021-10-04 0 3 0 68 6532
2021-10-05 2 14 1 76 7922
2021-10-06 0 3 0 125 9753
2021-10-07 0 3 0 120 9963
2021-10-08 1 6 1 99 7587
2021-10-09 1 15 2 86 5434
2021-10-10 0 4 0 93 8119
2021-10-11 0 7 1 86 7114
2021-10-12 1 7 0 85 11069
2021-10-13 2 10 2 130 12013
2021-10-14 0 3 0 119 11498
2021-10-15 1 6 1 136 11138
2021-10-16 0 11 0 159 11492
2021-10-17 0 5 0 139 10881
2021-10-18 0 3 0 130 12452
2021-10-19 0 5 0 104 9710
2021-10-20 3 9 0 85 9720
2021-10-21 0 0 0 111 34450
2021-10-22 2 11 1 69 8430
2021-10-23 1 7 1 87 5533
2021-10-24 1 13 1 74 9651
2021-10-25 0 11 0 89 7704
2021-10-26 3 9 0 83 9231
2021-10-27 0 4 0 79 7575
2021-10-28 1 7 1 76 7069
2021-10-29 0 4 0 75 6460
2021-10-30 0 7 1 88 7194
2021-10-31 0 7 0 98 8310
Septembre 2021 24 171 10 280 285455
2021-09-01 0 3 2 36 8640
2021-09-02 4 5 0 37 5800
2021-09-03 0 10 1 36 5156
2021-09-04 0 2 0 36 6972
2021-09-05 0 1 0 43 4981
2021-09-06 1 11 0 41 6661
2021-09-07 1 12 0 46 10031
2021-09-08 1 4 0 41 12326
2021-09-09 0 5 0 49 26895
2021-09-10 0 6 1 59 9918
2021-09-11 0 3 0 44 5933
2021-09-12 1 6 1 39 4295
2021-09-13 1 6 0 44 7745
2021-09-14 3 10 0 47 10087
2021-09-15 3 18 1 280 10394
2021-09-16 1 7 1 161 10361
2021-09-17 0 4 0 190 12432
2021-09-18 0 2 0 188 15978
2021-09-19 0 2 0 253 13663
2021-09-20 0 1 0 200 15111
2021-09-21 1 3 1 125 8590
2021-09-22 2 6 0 160 8539
2021-09-23 0 0 1 147 9848
2021-09-24 1 4 0 66 9262
2021-09-25 1 6 0 105 6269
2021-09-26 0 7 1 111 9599
2021-09-27 1 7 0 103 8348
2021-09-28 2 15 0 77 7864
2021-09-29 0 5 0 118 7060
2021-09-30 0 0 0 102 6697
Août 2021 11 33 7 73 231609
2021-08-01 0 0 0 28 9012
2021-08-02 0 0 0 33 10340
2021-08-03 0 0 0 48 9087
2021-08-04 0 0 0 39 6385
2021-08-05 0 0 1 40 5603
2021-08-06 0 0 0 40 9211
2021-08-07 0 0 0 40 10577
2021-08-08 0 0 0 36 10060
2021-08-09 0 0 0 40 11728
2021-08-10 0 0 0 55 10109
2021-08-11 0 0 0 37 6508
2021-08-12 0 0 0 39 8136
2021-08-13 1 3 1 41 6454
2021-08-14 2 5 1 37 6972
2021-08-15 0 0 0 43 9840
2021-08-16 0 0 0 38 13142
2021-08-17 0 0 0 45 7592
2021-08-18 0 0 1 38 6557
2021-08-19 0 0 0 37 6038
2021-08-20 2 2 0 37 6461
2021-08-21 0 0 0 48 6027
2021-08-22 0 0 0 40 2939
2021-08-23 0 1 0 35 3225
2021-08-24 0 1 0 41 6669
2021-08-25 3 7 1 50 9922
2021-08-26 1 1 0 73 2986
2021-08-27 0 0 0 35 2451
2021-08-28 0 1 1 33 5309
2021-08-29 0 0 0 32 8982
2021-08-30 2 6 1 32 7294
2021-08-31 0 6 0 42 5993
Juillet 2021 6 8 2 81 305173
2021-07-01 0 0 0 75 10036
2021-07-02 0 0 0 81 8440
2021-07-03 0 0 0 67 13230
2021-07-04 0 0 0 36 8785
2021-07-05 0 0 0 40 9194
2021-07-06 0 0 0 42 10481
2021-07-07 0 0 0 39 7665
2021-07-08 0 0 0 49 10484
2021-07-09 0 0 0 50 10282
2021-07-10 0 0 0 51 10523
2021-07-11 0 0 0 50 8246
2021-07-12 0 0 0 45 7596
2021-07-13 0 0 0 35 7852
2021-07-14 0 0 0 53 8163
2021-07-15 0 0 0 38 9082
2021-07-16 0 0 0 36 8446
2021-07-17 0 0 1 39 9669
2021-07-18 0 1 0 39 9019
2021-07-19 0 0 0 43 11040
2021-07-20 0 0 0 35 11389
2021-07-21 0 0 0 40 7890
2021-07-22 0 0 0 40 7654
2021-07-23 0 0 0 35 8792
2021-07-24 0 0 0 32 8114
2021-07-25 0 0 0 33 6522
2021-07-26 0 1 0 38 7728
2021-07-27 0 0 0 35 9299
2021-07-28 0 0 0 28 6500
2021-07-29 0 0 0 35 36222
2021-07-30 0 0 1 37 7791
2021-07-31 6 6 0 32 9039
Juin 2021 17 31 2 135 311168
Mai 2021 3 31 4 268 597777
Avril 2021 10 51 6 287 308355
Mars 2021 7 24 1 308 444900
2021-03-01 0 0 0 72 8645
2021-03-02 1 2 0 62 7066
2021-03-03 0 1 0 58 5404
2021-03-04 0 0 1 61 5201
2021-03-05 0 0 0 63 8432
2021-03-06 0 0 0 60 4862
2021-03-07 0 1 0 50 4615
2021-03-08 0 0 0 55 4461
2021-03-09 0 0 0 58 6240
2021-03-10 0 0 0 65 8568
2021-03-11 1 3 0 62 4993
2021-03-12 0 1 0 55 5378
2021-03-13 0 0 0 60 4371
2021-03-14 0 1 0 65 5377
2021-03-15 1 1 0 69 7164
2021-03-16 0 1 0 98 8406
2021-03-17 1 6 0 308 16132
2021-03-18 0 0 0 75 162827
2021-03-19 0 0 0 83 38605
2021-03-20 0 2 0 68 10275
2021-03-21 0 0 0 72 11763
2021-03-22 0 0 0 54 8930
2021-03-23 0 0 0 94 11374
2021-03-24 0 0 0 97 12163
2021-03-25 0 0 0 117 11569
2021-03-26 0 1 0 127 11884
2021-03-27 0 1 0 104 7707
2021-03-28 0 0 0 89 8951
2021-03-29 0 0 0 77 10399
2021-03-30 0 0 0 73 11056
2021-03-31 3 3 0 77 12082
Février 2021 5 29 2 338 223056
2021-02-01 1 1 0 54 9051
2021-02-02 0 1 0 50 7915
2021-02-03 0 0 0 48 4645
2021-02-04 0 3 0 48 5872
2021-02-05 0 2 0 48 7890
2021-02-06 0 0 0 47 6585
2021-02-07 0 0 0 70 15429
2021-02-08 0 1 0 54 7692
2021-02-09 3 3 1 58 8579
2021-02-10 0 2 0 69 8517
2021-02-11 0 0 0 59 6724
2021-02-12 0 4 0 61 8593
2021-02-13 0 0 0 63 5515
2021-02-14 0 0 0 62 6322
2021-02-15 1 5 0 69 8207
2021-02-16 0 1 0 75 9081
2021-02-17 0 0 0 338 10115
2021-02-18 0 0 0 79 7644
2021-02-19 0 0 0 106 8262
2021-02-20 0 1 0 78 5723
2021-02-21 0 1 0 41 3073
2021-02-22 0 0 0 84 5600
2021-02-23 0 1 0 86 9974
2021-02-24 0 3 1 116 9261
2021-02-25 0 0 0 142 12642
2021-02-26 0 0 0 140 10029
2021-02-27 0 0 0 79 7214
2021-02-28 0 0 0 78 6902
Janvier 2021 5 34 0 322 447548
* 2020 206 1716 105 808 4713463
Décembre 2020 6 38 2 320 310487
Novembre 2020 12 97 3 352 464426
Octobre 2020 21 169 7 346 497422
2020-10-01 4 11 1 121 13231
2020-10-02 0 15 0 130 15235
2020-10-03 0 0 1 112 12703
2020-10-04 3 10 1 119 108419
2020-10-05 3 15 1 92 60488
2020-10-06 0 16 0 118 11489
2020-10-07 1 8 1 121 10905
2020-10-08 0 9 0 143 14006
2020-10-09 0 2 0 97 9716
2020-10-10 1 4 1 94 11237
2020-10-11 0 2 0 88 10226
2020-10-12 3 7 0 85 9874
2020-10-13 1 9 1 89 12163
2020-10-14 0 11 0 346 16344
2020-10-15 0 4 0 86 10037
2020-10-16 0 0 0 90 9449
2020-10-17 0 0 0 91 10244
2020-10-18 0 9 0 78 8796
2020-10-19 1 3 0 75 7818
2020-10-20 3 9 0 88 7872
2020-10-21 0 5 0 85 8220
2020-10-22 0 10 0 87 10088
2020-10-23 0 2 0 104 13389
2020-10-24 0 0 0 95 12852
2020-10-25 0 2 0 96 11374
2020-10-26 0 1 0 98 10283
2020-10-27 1 2 0 105 7650
2020-10-28 0 2 0 107 10881
2020-10-29 0 0 0 112 13782
2020-10-30 0 1 0 114 15295
2020-10-31 0 0 0 111 13356
Septembre 2020 30 356 15 133 325183
Août 2020 16 147 7 163 471897
Juillet 2020 16 77 2 100 345760
2020-07-01 0 3 0 53 15128
2020-07-02 0 0 0 50 14023
2020-07-03 0 0 0 54 10055
2020-07-04 0 1 0 54 7181
2020-07-05 1 2 0 53 7390
2020-07-06 2 4 0 53 12535
2020-07-07 0 0 0 57 13793
2020-07-08 1 3 1 56 12452
2020-07-09 1 5 0 96 12087
2020-07-10 0 5 0 98 12988
2020-07-11 0 0 0 88 11107
2020-07-12 0 2 0 83 8142
2020-07-13 0 4 0 76 10295
2020-07-14 1 2 0 78 11064
2020-07-15 2 3 0 76 12030
2020-07-16 1 13 0 84 10150
2020-07-17 0 2 0 65 10880
2020-07-18 0 1 0 68 11217
2020-07-19 0 1 0 74 13216
2020-07-20 1 6 1 100 12998
2020-07-21 0 6 0 93 11786
2020-07-22 3 6 0 73 9832
2020-07-23 1 1 0 78 11746
2020-07-24 0 1 0 90 11406
2020-07-25 0 1 0 83 9782
2020-07-26 0 0 0 93 11234
2020-07-27 2 3 0 93 9667
2020-07-28 0 0 0 98 10158
2020-07-29 0 1 0 94 10268
2020-07-30 0 1 0 93 11155
2020-07-31 0 0 0 88 9995
Juin 2020 17 60 5 127 452817
Mai 2020 7 22 3 295 321652
Avril 2020 10 47 1 189 300030
Mars 2020 24 253 3 199 467854
2020-03-01 0 7 0 104 10346
2020-03-02 0 5 0 126 6471
2020-03-03 3 17 1 107 4913
2020-03-04 0 10 0 116 5122
2020-03-05 1 12 0 143 8779
2020-03-06 0 9 0 144 11988
2020-03-07 0 2 0 123 11124
2020-03-08 0 5 0 122 13134
2020-03-09 0 10 0 117 13459
2020-03-10 2 5 0 114 11164
2020-03-11 0 4 0 105 8274
2020-03-12 0 10 0 199 11093
2020-03-13 0 9 0 186 12284
2020-03-14 1 11 0 189 12386
2020-03-15 1 12 1 189 11665
2020-03-16 1 3 0 173 10318
2020-03-17 0 8 0 116 9643
2020-03-18 0 2 0 107 8287
2020-03-19 0 4 0 105 10639
2020-03-20 0 0 0 116 10883
2020-03-21 0 4 0 114 10354
2020-03-22 0 0 0 119 9230
2020-03-23 3 9 0 112 6679
2020-03-24 0 7 0 113 47441
2020-03-25 0 10 0 107 140101
2020-03-26 5 9 0 119 6876
2020-03-27 1 6 0 154 6818
2020-03-28 1 16 0 114 7190
2020-03-29 2 20 0 105 6840
2020-03-30 1 13 0 121 11552
2020-03-31 2 14 1 117 12801
Février 2020 18 171 9 323 281798
Janvier 2020 29 279 48 808 474137
2020-01-01 0 12 0 120 10073
2020-01-02 1 9 0 127 13456
2020-01-03 3 8 5 120 7230
2020-01-04 1 7 2 109 7682
2020-01-05 0 6 2 116 7700
2020-01-06 2 9 1 122 10580
2020-01-07 0 2 3 120 7752
2020-01-08 1 11 3 117 8845
2020-01-09 2 13 1 115 11380
2020-01-10 0 6 1 106 9117
2020-01-11 0 9 0 188 8366
2020-01-12 3 17 3 120 9658
2020-01-13 0 10 1 268 9745
2020-01-14 2 5 3 625 12117
2020-01-15 0 1 0 587 10280
2020-01-16 0 15 2 597 12766
2020-01-17 2 17 3 575 11348
2020-01-18 0 9 2 108 11823
2020-01-19 0 8 1 132 7576
2020-01-20 0 2 0 589 7895
2020-01-21 0 4 1 808 8119
2020-01-22 4 9 0 507 11803
2020-01-23 0 1 1 383 6222
2020-01-24 1 15 1 244 6849
2020-01-25 0 2 1 110 7819
2020-01-26 2 13 2 118 38722
2020-01-27 0 6 3 116 167649
2020-01-28 2 11 3 108 7008
2020-01-29 2 13 1 114 7552
2020-01-30 0 17 0 111 7527
2020-01-31 1 12 2 106 9478
* 2019 246 3411 313 446 3308531
Décembre 2019 18 159 26 446 351248
2019-12-01 0 4 1 277 11373
2019-12-02 1 14 1 135 11534
2019-12-03 0 5 1 110 9010
2019-12-04 0 4 2 106 7741
2019-12-05 0 6 0 330 8461
2019-12-06 3 13 1 335 12098
2019-12-07 0 4 0 215 16251
2019-12-08 0 0 2 114 35635
2019-12-09 4 16 3 170 9809
2019-12-10 1 4 0 112 11124
2019-12-11 0 5 1 299 9463
2019-12-12 0 3 1 306 9544
2019-12-13 0 2 0 366 8347
2019-12-14 0 3 0 446 11186
2019-12-15 1 13 0 367 10258
2019-12-16 2 14 0 109 9322
2019-12-17 0 13 0 127 9034
2019-12-18 1 5 0 233 9507
2019-12-19 1 2 4 112 10126
2019-12-20 0 0 0 104 9567
2019-12-21 0 6 1 116 10009
2019-12-22 0 0 1 105 10019
2019-12-23 0 0 0 125 10592
2019-12-24 0 2 0 127 11029
2019-12-25 0 0 0 112 10531
2019-12-26 0 1 0 138 11502
2019-12-27 0 3 0 113 14168
2019-12-28 0 0 4 115 20305
2019-12-29 4 5 1 119 11114
2019-12-30 0 7 1 127 5225
2019-12-31 0 5 1 125 7364
Novembre 2019 16 245 33 325 524135
2019-11-01 1 5 3 104 6570
2019-11-02 0 8 0 112 5937
2019-11-03 5 17 2 103 5135
2019-11-04 0 13 4 108 4364
2019-11-05 1 7 1 101 4644
2019-11-06 0 19 0 100 7049
2019-11-07 0 16 0 107 5602
2019-11-08 0 7 2 100 5473
2019-11-09 0 10 2 115 4378
2019-11-10 0 14 1 113 5596
2019-11-11 2 6 0 98 4288
2019-11-12 0 12 0 131 4467
2019-11-13 0 9 1 114 5320
2019-11-14 1 6 1 125 6683
2019-11-15 1 13 1 120 4926
2019-11-16 0 8 0 163 6256
2019-11-17 0 3 0 134 5852
2019-11-18 0 1 1 107 5431
2019-11-19 0 9 4 99 4758
2019-11-20 1 11 1 102 3814
2019-11-21 0 6 0 117 9376
2019-11-22 0 8 0 112 11663
2019-11-23 0 6 0 101 8399
2019-11-24 0 4 1 109 9641
2019-11-25 0 2 2 112 8759
2019-11-26 2 2 0 114 56347
2019-11-27 2 6 1 111 123100
2019-11-28 0 3 1 112 10114
2019-11-29 0 8 2 110 67835
2019-11-30 0 6 2 325 112358
Octobre 2019 24 272 59 121 189762
2019-10-01 2 8 1 94 6155
2019-10-02 1 4 4 88 3845
2019-10-03 3 9 1 96 3683
2019-10-04 0 14 2 89 5498
2019-10-05 0 1 0 84 20461
2019-10-06 2 9 2 99 13970
2019-10-07 0 6 0 89 7494
2019-10-08 0 11 1 101 7092
2019-10-09 0 11 3 109 4391
2019-10-10 2 19 3 96 5295
2019-10-11 1 30 1 99 5265
2019-10-12 0 19 5 115 5091
2019-10-13 0 4 1 121 6720
2019-10-14 2 14 2 108 6374
2019-10-15 1 7 2 105 5930
2019-10-16 0 3 1 99 5079
2019-10-17 0 8 1 103 5643
2019-10-18 0 3 2 96 4595
2019-10-19 6 27 3 92 3558
2019-10-20 0 7 1 112 5029
2019-10-21 1 8 2 109 4212
2019-10-22 0 7 1 104 4800
2019-10-23 0 2 1 109 4102
2019-10-24 0 9 1 106 6806
2019-10-25 1 6 3 108 5045
2019-10-26 0 2 2 106 5937
2019-10-27 0 3 1 104 5538
2019-10-28 2 6 3 103 4525
2019-10-29 0 0 5 100 5133
2019-10-30 0 3 3 100 4364
2019-10-31 0 12 1 110 8132
Septembre 2019 25 386 54 141 376708
2019-09-01 1 9 2 105 6240
2019-09-02 2 23 0 99 4858
2019-09-03 0 2 3 113 5936
2019-09-04 1 23 3 106 6478
2019-09-05 1 13 2 101 4820
2019-09-06 0 19 1 107 6729
2019-09-07 1 7 1 101 5312
2019-09-08 2 30 3 112 7337
2019-09-09 0 11 1 102 5572
2019-09-10 0 11 0 100 7902
2019-09-11 0 19 4 106 7070
2019-09-12 0 9 1 93 5907
2019-09-13 0 17 1 104 5766
2019-09-14 1 20 1 106 8380
2019-09-15 1 21 1 99 8495
2019-09-16 0 10 3 103 4957
2019-09-17 0 4 3 101 4911
2019-09-18 1 7 3 123 86629
2019-09-19 0 12 0 124 109596
2019-09-20 0 17 2 141 8262
2019-09-21 0 10 0 140 7838
2019-09-22 1 6 2 112 6839
2019-09-23 6 10 3 97 8328
2019-09-24 1 9 3 94 5944
2019-09-25 0 8 0 97 4935
2019-09-26 0 12 4 97 6015
2019-09-27 2 11 0 99 7899
2019-09-28 3 18 4 99 4761
2019-09-29 1 9 2 92 4842
2019-09-30 0 9 1 98 8150
Août 2019 22 257 31 122 225760
2019-08-01 0 17 1 101 4722
2019-08-02 1 16 1 99 5527
2019-08-03 0 9 0 100 9242
2019-08-04 0 2 0 92 4700
2019-08-05 0 4 0 122 3678
2019-08-06 0 8 0 94 4677
2019-08-07 0 4 0 98 4369
2019-08-08 0 5 0 100 6221
2019-08-09 1 8 0 111 6677
2019-08-10 0 1 0 99 8730
2019-08-11 0 10 0 101 6982
2019-08-12 0 10 1 100 22525
2019-08-13 1 11 0 99 15601
2019-08-14 0 10 0 100 10146
2019-08-15 1 6 2 114 7279
2019-08-16 1 14 0 98 8935
2019-08-17 0 6 0 100 8964
2019-08-18 1 2 1 103 11513
2019-08-19 3 5 3 92 9363
2019-08-20 0 0 1 94 4320
2019-08-21 2 7 4 97 4019
2019-08-22 0 5 2 95 4156
2019-08-23 0 3 1 78 7584
2019-08-24 0 4 1 32 2644
2019-08-25 1 5 2 91 3521
2019-08-26 0 9 3 100 5440
2019-08-27 6 29 2 101 5306
2019-08-28 1 12 2 92 4748
2019-08-29 0 7 1 92 4376
2019-08-30 1 16 0 93 9018
2019-08-31 2 12 3 98 10777
Juillet 2019 24 281 62 149 190301
2019-07-01 4 24 0 104 8142
2019-07-02 2 16 0 100 8838
2019-07-03 0 5 0 95 8928
2019-07-04 0 8 0 91 9284
2019-07-05 1 10 1 91 6175
2019-07-06 0 3 0 83 4015
2019-07-07 0 3 0 89 3603
2019-07-08 0 20 1 83 4139
2019-07-09 0 11 0 90 7781
2019-07-10 1 12 1 84 9897
2019-07-11 0 15 0 91 7893
2019-07-12 1 10 0 94 4561
2019-07-13 0 1 0 88 3908
2019-07-14 0 4 0 88 7782
2019-07-15 0 8 0 92 8996
2019-07-16 0 0 0 84 6713
2019-07-17 0 7 1 92 7822
2019-07-18 1 7 1 131 5964
2019-07-19 3 17 0 88 3871
2019-07-20 0 7 1 86 4460
2019-07-21 0 6 1 149 3654
2019-07-22 1 6 0 116 4333
2019-07-23 0 3 0 124 2777
2019-07-24 0 0 0 108 5144
2019-07-25 1 6 8 136 6264
2019-07-26 0 7 14 131 6609
2019-07-27 0 6 4 131 6579
2019-07-28 0 10 6 129 5658
2019-07-29 1 17 9 110 5459
2019-07-30 7 10 6 134 5038
2019-07-31 1 22 8 142 6014
Juin 2019 11 171 3 112 246519
Mai 2019 23 311 10 167 218891
2019-05-01 0 0 0 42 7579
2019-05-02 1 11 0 51 5081
2019-05-03 1 30 0 46 4550
2019-05-04 2 30 2 68 9688
2019-05-05 2 23 0 62 9610
2019-05-06 0 14 0 63 6169
2019-05-07 0 7 0 52 3798
2019-05-08 1 9 0 91 6925
2019-05-09 1 9 1 98 10005
2019-05-10 1 8 1 45 9905
2019-05-11 7 14 0 46 10729
2019-05-12 0 10 1 136 10508
2019-05-13 1 10 0 167 10276
2019-05-14 0 1 1 165 13350
2019-05-15 0 11 1 129 11534
2019-05-16 0 18 0 132 11759
2019-05-17 0 8 0 99 8749
2019-05-18 1 12 0 104 3904
2019-05-19 1 4 0 27 2513
2019-05-20 2 14 1 30 3181
2019-05-21 0 11 0 29 2830
2019-05-22 0 8 0 121 4397
2019-05-23 0 10 0 120 5497
2019-05-24 0 3 0 115 10400
2019-05-25 0 10 0 104 7847
2019-05-26 0 5 0 102 6183
2019-05-27 2 9 0 107 8783
2019-05-28 0 8 0 98 4284
2019-05-29 0 2 1 102 3072
2019-05-30 0 0 0 91 2845
2019-05-31 0 2 1 93 2940
Avril 2019 21 294 9 174 311459
Mars 2019 22 372 16 142 344146
Février 2019 18 288 4 110 142132
Janvier 2019 22 375 6 113 187470
* 2018 338 6176 81 641 2624946
Décembre 2018 43 306 8 253 421582
2018-12-01 1 13 0 108 10961
2018-12-02 0 3 1 109 14766
2018-12-03 0 17 0 108 18344
2018-12-04 0 4 0 111 20929
2018-12-05 1 19 1 111 11950
2018-12-06 8 18 0 111 14660
2018-12-07 13 27 0 107 14549
2018-12-08 2 12 0 100 8121
2018-12-09 4 26 0 97 8912
2018-12-10 0 12 0 94 9173
2018-12-11 1 7 0 104 7972
2018-12-12 0 13 0 253 12240
2018-12-13 2 10 0 245 6172
2018-12-14 0 17 1 134 6149
2018-12-15 0 6 0 160 5846
2018-12-16 2 14 1 106 5984
2018-12-17 2 10 0 104 5353
2018-12-18 0 9 0 98 5314
2018-12-19 0 5 0 100 3727
2018-12-20 0 3 0 96 2596
2018-12-21 0 5 0 23 4142
2018-12-22 0 2 0 24 6219
2018-12-23 0 5 0 21 8400
2018-12-24 0 2 0 18 10302
2018-12-25 1 2 0 23 11913
2018-12-26 0 7 0 22 8611
2018-12-27 1 1 1 24 17549
2018-12-28 0 2 2 24 151295
2018-12-29 5 13 0 49 2922
2018-12-30 0 17 1 49 3800
2018-12-31 0 5 0 46 2711
Novembre 2018 26 467 9 641 383363
2018-11-01 1 9 1 134 8941
2018-11-02 0 12 0 138 13320
2018-11-03 1 7 1 144 15011
2018-11-04 5 36 0 176 20866
2018-11-05 2 19 0 163 16221
2018-11-06 1 18 1 130 15015
2018-11-07 0 18 0 239 17530
2018-11-08 1 13 1 200 11015
2018-11-09 0 18 0 265 17559
2018-11-10 1 13 1 262 23662
2018-11-11 0 10 0 161 21706
2018-11-12 1 22 0 274 33147
2018-11-13 0 25 0 425 19047
2018-11-14 1 18 1 550 12156
2018-11-15 1 8 1 641 16863
2018-11-16 1 14 0 168 16611
2018-11-17 0 5 1 577 19696
2018-11-18 0 5 0 184 9470
2018-11-19 1 10 1 373 15763
2018-11-20 1 23 0 257 11354
2018-11-21 2 8 0 110 5798
2018-11-22 0 9 0 89 5367
2018-11-23 1 22 0 92 4528
2018-11-24 1 21 0 30 2309
2018-11-25 2 13 0 43 4520
2018-11-26 2 26 0 34 2339
2018-11-27 0 21 0 42 2307
2018-11-28 0 20 0 116 5597
2018-11-29 0 9 0 117 6218
2018-11-30 0 15 0 109 9427
Octobre 2018 34 527 6 321 248725
Septembre 2018 34 641 10 127 216306
Août 2018 32 583 16 101 188648
2018-08-01 0 26 0 98 6784
2018-08-02 0 29 0 101 6795
2018-08-03 0 11 0 93 6370
2018-08-04 5 19 1 90 6653
2018-08-05 4 23 0 93 6519
2018-08-06 0 24 0 95 6142
2018-08-07 2 23 1 94 5013
2018-08-08 0 18 0 93 6325
2018-08-09 1 9 0 98 6608
2018-08-10 1 13 1 101 6723
2018-08-11 0 17 1 94 6721
2018-08-12 1 9 2 92 6116
2018-08-13 2 19 0 93 6356
2018-08-14 0 5 0 90 6043
2018-08-15 1 16 0 93 6200
2018-08-16 1 34 0 89 6859
2018-08-17 0 25 0 86 5971
2018-08-18 0 27 1 90 6101
2018-08-19 4 24 0 94 6672
2018-08-20 0 10 1 83 6150
2018-08-21 1 9 2 93 5405
2018-08-22 1 24 0 90 4343
2018-08-23 3 23 3 89 5993
2018-08-24 1 54 3 92 7389
2018-08-25 0 13 0 84 5312
2018-08-26 0 3 0 83 5702
2018-08-27 0 9 0 82 5196
2018-08-28 2 10 0 84 5401
2018-08-29 1 8 0 82 4297
2018-08-30 1 19 0 27 4663
2018-08-31 0 30 0 22 7826
Juillet 2018 21 386 3 104 182475
2018-07-01 0 17 0 98 5851
2018-07-02 0 3 1 93 5331
2018-07-03 0 9 0 102 6039
2018-07-04 3 21 0 95 8377
2018-07-05 0 5 0 89 5211
2018-07-06 5 16 0 94 5550
2018-07-07 0 10 0 92 5422
2018-07-08 0 12 0 94 7624
2018-07-09 1 11 1 93 5229
2018-07-10 1 8 0 93 5538
2018-07-11 0 19 0 86 5102
2018-07-12 0 9 1 84 4916
2018-07-13 0 17 0 82 5453
2018-07-14 0 9 0 90 4210
2018-07-15 0 7 0 82 5017
2018-07-16 0 26 0 90 8111
2018-07-17 1 19 0 102 5632
2018-07-18 4 27 0 102 6009
2018-07-19 1 28 0 99 6343
2018-07-20 1 15 0 104 6087
2018-07-21 1 13 0 93 6072
2018-07-22 1 24 0 91 5850
2018-07-23 0 12 0 97 6595
2018-07-24 0 5 0 94 4057
2018-07-25 0 5 0 96 6576
2018-07-26 1 2 0 92 6460
2018-07-27 0 11 0 89 6309
2018-07-28 0 4 0 91 6042
2018-07-29 0 5 0 93 5366
2018-07-30 1 4 0 94 6266
2018-07-31 0 13 0 87 5830
Juin 2018 31 442 3 110 213303
2018-06-01 0 14 0 88 5056
2018-06-02 4 11 0 93 4990
2018-06-03 0 9 0 82 2169
2018-06-04 2 10 0 110 5416
2018-06-05 0 11 1 110 5638
2018-06-06 0 14 0 102 5779
2018-06-07 1 5 0 95 5120
2018-06-08 1 7 0 88 5602
2018-06-09 1 8 0 95 4834
2018-06-10 2 29 0 92 26151
2018-06-11 0 6 0 98 18021
2018-06-12 2 31 0 106 6413
2018-06-13 1 21 0 102 6468
2018-06-14 1 44 0 94 6579
2018-06-15 0 14 0 107 5965
2018-06-16 0 11 0 101 5931
2018-06-17 2 7 1 106 6370
2018-06-18 0 3 1 97 6629
2018-06-19 3 25 0 97 6644
2018-06-20 1 26 0 100 7477
2018-06-21 3 12 0 92 7344
2018-06-22 4 26 0 102 7199
2018-06-23 0 14 0 99 8418
2018-06-24 0 17 0 102 8652
2018-06-25 2 19 0 104 7248
2018-06-26 0 5 0 87 4771
2018-06-27 0 8 0 97 5100
2018-06-28 1 6 0 88 6575
2018-06-29 0 20 0 91 5177
2018-06-30 0 9 0 90 5567
Mai 2018 21 422 4 107 174393
Avril 2018 25 564 5 104 159849
2018-04-01 5 38 1 78 19803
2018-04-02 1 37 0 81 4900
2018-04-03 0 28 0 80 4480
2018-04-04 1 26 0 88 4206
2018-04-05 3 35 0 84 4988
2018-04-06 0 18 0 82 4984
2018-04-07 0 8 0 86 4144
2018-04-08 2 17 0 90 4595
2018-04-09 0 32 0 83 4451
2018-04-10 0 21 0 84 4551
2018-04-11 0 12 0 93 4320
2018-04-12 0 21 0 104 5608
2018-04-13 1 10 0 85 4997
2018-04-14 2 39 1 91 4749
2018-04-15 2 21 0 92 5393
2018-04-16 1 13 0 92 5327
2018-04-17 0 9 0 88 4518
2018-04-18 0 12 1 89 4185
2018-04-19 0 7 0 16 1456
2018-04-20 0 6 0 82 2948
2018-04-21 0 6 0 81 4974
2018-04-22 0 3 0 83 4887
2018-04-23 2 9 0 85 5259
2018-04-24 3 20 0 82 4998
2018-04-25 0 16 1 81 5180
2018-04-26 0 11 0 78 4558
2018-04-27 1 23 1 86 10368
2018-04-28 0 26 0 88 5449
2018-04-29 1 20 0 86 4042
2018-04-30 0 20 0 99 5531
Mars 2018 20 634 4 96 152933
Février 2018 25 631 7 93 121912
2018-02-01 0 25 0 84 3932
2018-02-02 0 16 0 93 3849
2018-02-03 0 20 0 86 5032
2018-02-04 1 17 0 81 4606
2018-02-05 1 23 1 78 4124
2018-02-06 0 8 0 76 3893
2018-02-07 1 14 0 81 4611
2018-02-08 4 44 2 87 4610
2018-02-09 0 14 0 88 11329
2018-02-10 0 25 0 82 9515
2018-02-11 2 25 0 79 5144
2018-02-12 4 65 1 80 5149
2018-02-13 1 57 0 84 5260
2018-02-14 0 11 0 74 3020
2018-02-15 0 10 0 76 4605
2018-02-16 0 13 0 79 4615
2018-02-17 0 8 0 67 2499
2018-02-18 2 38 0 71 5101
2018-02-19 0 10 0 77 4192
2018-02-20 0 16 1 64 3560
2018-02-21 0 12 1 73 4039
2018-02-22 0 25 0 68 4479
2018-02-23 1 18 0 62 3451
2018-02-24 0 14 0 64 2075
2018-02-25 0 20 0 22 1521
2018-02-26 4 33 0 35 2611
2018-02-27 4 32 1 18 2068
2018-02-28 0 18 0 19 3022
Janvier 2018 26 573 6 94 161457
* 2017 346 6100 56 180 1675168
Décembre 2017 37 499 6 91 136063
Novembre 2017 37 675 6 93 169670
Octobre 2017 15 426 2 93 151449
Septembre 2017 28 548 5 94 135543
Août 2017 29 384 6 99 148097
2017-08-01 0 9 0 68 3543
2017-08-02 0 12 1 66 2932
2017-08-03 0 7 0 64 3100
2017-08-04 1 8 0 83 3375
2017-08-05 1 8 0 81 4004
2017-08-06 2 6 1 80 3731
2017-08-07 6 14 1 85 3850
2017-08-08 2 3 0 76 4998
2017-08-09 0 13 1 72 4403
2017-08-10 3 6 0 75 3696
2017-08-11 0 6 0 74 2479
2017-08-12 0 7 0 81 4043
2017-08-13 0 9 0 73 4128
2017-08-14 0 14 0 73 3594
2017-08-15 2 7 0 71 3835
2017-08-16 1 11 0 70 3779
2017-08-17 0 13 0 82 3941
2017-08-18 0 7 0 82 3689
2017-08-19 0 8 0 19 1560
2017-08-20 0 11 0 85 2353
2017-08-21 0 15 0 99 4536
2017-08-22 2 37 0 91 4987
2017-08-23 0 13 0 81 4153
2017-08-24 5 24 0 87 5297
2017-08-25 1 31 0 79 4356
2017-08-26 0 12 0 85 4846
2017-08-27 1 23 0 83 6285
2017-08-28 0 21 0 98 6070
2017-08-29 0 5 0 85 5964
2017-08-30 1 14 1 79 25924
2017-08-31 1 10 1 82 4646
Juillet 2017 25 490 5 87 176472
Juin 2017 33 603 4 89 156248
Mai 2017 26 470 2 99 181189
Avril 2017 31 490 5 180 139896
Mars 2017 27 432 3 119 90981
Février 2017 31 587 7 87 74924
2017-02-01 1 14 0 55 2090
2017-02-02 0 10 0 26 2549
2017-02-03 2 38 0 74 3460
2017-02-04 0 3 0 75 4033
2017-02-05 4 34 1 66 4596
2017-02-06 3 76 1 73 4948
2017-02-07 1 30 0 76 4581
2017-02-08 0 19 0 77 4379
2017-02-09 1 26 2 70 4735
2017-02-10 1 27 0 70 3647
2017-02-11 0 10 0 87 3878
2017-02-12 2 13 0 82 3838
2017-02-13 2 70 0 81 4357
2017-02-14 4 31 0 16 1711
2017-02-15 2 25 0 24 3776
2017-02-16 2 20 1 16 3155
2017-02-17 0 15 0 17 2432
2017-02-18 1 10 0 16 1365
2017-02-19 0 13 1 15 1380
2017-02-20 1 27 1 25 1662
2017-02-21 2 8 0 17 1136
2017-02-22 1 12 0 19 946
2017-02-23 0 20 0 25 1535
2017-02-24 1 10 0 17 879
2017-02-25 0 8 0 20 940
2017-02-26 0 10 0 18 1219
2017-02-27 0 5 0 15 954
2017-02-28 0 3 0 13 743
Janvier 2017 27 496 5 80 114636
2017-01-01 1 23 0 54 2509
2017-01-02 2 27 0 28 2705
2017-01-03 0 12 0 73 3331
2017-01-04 1 5 0 65 3498
2017-01-05 1 16 0 64 3927
2017-01-06 0 18 0 65 3258
2017-01-07 1 9 1 53 3015
2017-01-08 0 16 0 57 3949
2017-01-09 0 5 0 52 5170
2017-01-10 1 9 0 49 4823
2017-01-11 0 15 0 71 3456
2017-01-12 0 12 1 80 3183
2017-01-13 0 7 1 58 2124
2017-01-14 5 10 0 61 2678
2017-01-15 1 7 0 63 3386
2017-01-16 1 28 1 59 3267
2017-01-17 0 8 0 50 2647
2017-01-18 1 13 0 63 3800
2017-01-19 0 8 0 57 2844
2017-01-20 0 22 0 57 3446
2017-01-21 5 26 0 55 4318
2017-01-22 0 24 0 55 4567
2017-01-23 1 24 1 51 4320
2017-01-24 0 27 0 55 3811
2017-01-25 0 7 0 73 3931
2017-01-26 0 16 0 59 4468
2017-01-27 0 8 0 58 4403
2017-01-28 0 19 0 58 3812
2017-01-29 1 20 0 64 5384
2017-01-30 2 26 0 61 4841
2017-01-31 3 29 0 68 3765
* 2016 389 7721 79 245 2075605
Décembre 2016 34 533 2 170 118206
Novembre 2016 34 586 6 245 122991
Octobre 2016 43 726 7 191 160217
Septembre 2016 26 657 9 85 157449
2016-09-01 0 6 0 74 4766
2016-09-02 0 11 0 20 3957
2016-09-03 2 15 0 24 5392
2016-09-04 2 24 2 27 6016
2016-09-05 1 48 0 60 6378
2016-09-06 0 19 0 64 16148
2016-09-07 0 25 0 29 5865
2016-09-08 0 8 1 28 2521
2016-09-09 2 25 2 66 4139
2016-09-10 1 13 0 57 3591
2016-09-11 0 20 0 52 3703
2016-09-12 5 46 2 56 3958
2016-09-13 2 32 0 56 4310
2016-09-14 1 36 0 57 3961
2016-09-15 0 20 0 54 3639
2016-09-16 0 8 0 85 5882
2016-09-17 1 17 1 63 4479
2016-09-18 1 37 0 55 4935
2016-09-19 1 18 0 55 4541
2016-09-20 2 43 0 53 6073
2016-09-21 0 23 0 43 3742
2016-09-22 1 18 1 53 4611
2016-09-23 0 15 0 70 4243
2016-09-24 0 18 0 70 5283
2016-09-25 2 19 0 59 15111
2016-09-26 0 12 0 62 4202
2016-09-27 1 10 0 55 4151
2016-09-28 1 28 0 55 4096
2016-09-29 0 24 0 58 3581
2016-09-30 0 19 0 55 4175
Août 2016 31 721 9 114 169873
2016-08-01 0 34 0 56 15771
2016-08-02 1 24 0 49 4965
2016-08-03 0 15 0 54 4374
2016-08-04 0 39 0 46 4547
2016-08-05 1 46 1 42 4740
2016-08-06 0 18 0 49 4109
2016-08-07 9 43 2 54 3599
2016-08-08 1 25 0 48 3592
2016-08-09 0 15 0 49 3725
2016-08-10 0 19 0 45 4264
2016-08-11 1 9 0 44 3140
2016-08-12 1 24 0 45 4209
2016-08-13 0 13 2 48 4850
2016-08-14 2 31 2 46 4216
2016-08-15 0 27 0 25 3114
2016-08-16 1 23 0 30 2754
2016-08-17 1 30 0 30 3105
2016-08-18 0 16 0 60 3872
2016-08-19 0 27 0 58 4655
2016-08-20 1 23 0 72 4528
2016-08-21 0 6 0 64 4231
2016-08-22 0 19 0 114 6004
2016-08-23 1 25 0 103 5871
2016-08-24 1 24 0 59 3064
2016-08-25 0 7 0 90 16785
2016-08-26 1 16 0 69 17998
2016-08-27 0 12 0 72 4035
2016-08-28 7 42 1 73 3576
2016-08-29 0 27 0 77 5294
2016-08-30 1 27 1 71 5843
2016-08-31 1 15 0 69 5043
Juillet 2016 19 513 3 58 166690
Juin 2016 30 565 5 53 211715
Mai 2016 40 1116 8 94 166514
Avril 2016 27 529 7 65 155208
2016-04-01 3 38 2 30 3618
2016-04-02 0 23 1 23 3917
2016-04-03 3 45 1 65 6292
2016-04-04 3 45 0 31 4738
2016-04-05 0 6 0 26 3350
2016-04-06 0 15 0 22 4462
2016-04-07 1 13 1 21 3485
2016-04-08 0 9 0 23 3328
2016-04-09 2 17 0 24 3870
2016-04-10 0 13 0 25 4267
2016-04-11 0 19 0 55 6024
2016-04-12 1 16 0 59 14106
2016-04-13 4 14 0 59 11237
2016-04-14 0 14 0 52 5426
2016-04-15 1 14 0 20 3457
2016-04-16 0 7 0 50 5198
2016-04-17 0 2 0 49 5204
2016-04-18 1 17 1 20 4013
2016-04-19 0 11 1 20 3807
2016-04-20 1 17 0 23 3488
2016-04-21 0 16 0 25 3419
2016-04-22 0 21 0 37 4063
2016-04-23 0 8 0 36 4166
2016-04-24 1 14 0 37 5654
2016-04-25 2 25 0 65 6602
2016-04-26 0 16 0 63 5983
2016-04-27 0 20 0 49 6244
2016-04-28 1 12 0 54 6223
2016-04-29 3 29 0 22 4065
2016-04-30 0 13 0 56 5502
Mars 2016 35 513 11 88 224056
Février 2016 35 640 4 96 192454
2016-02-01 1 22 0 74 8459
2016-02-02 0 20 0 87 6602
2016-02-03 2 37 0 76 17946
2016-02-04 0 19 0 64 5160
2016-02-05 1 28 0 73 4553
2016-02-06 2 27 0 78 4715
2016-02-07 4 24 0 69 4878
2016-02-08 0 21 0 22 2514
2016-02-09 0 10 0 72 6304
2016-02-10 1 10 0 90 4785
2016-02-11 1 27 0 77 5427
2016-02-12 0 34 0 82 5486
2016-02-13 1 28 1 77 6932
2016-02-14 1 24 0 82 7091
2016-02-15 3 42 1 81 5791
2016-02-16 1 25 1 75 6305
2016-02-17 2 35 0 95 5664
2016-02-18 2 36 0 76 5744
2016-02-19 1 24 0 76 5288
2016-02-20 4 21 0 96 5390
2016-02-21 2 14 1 70 5007
2016-02-22 1 24 0 84 5259
2016-02-23 2 21 0 78 6312
2016-02-24 0 11 0 80 7832
2016-02-25 1 5 0 79 5226
2016-02-26 0 10 0 70 5018
2016-02-27 2 21 0 75 5289
2016-02-28 0 9 0 83 12718
2016-02-29 0 11 0 72 14759
Janvier 2016 35 622 8 95 230232
* 2015 373 6684 79 100 1549803
Décembre 2015 28 499 7 68 140303
Novembre 2015 40 724 5 35 146607
2015-11-01 1 18 0 27 4452
2015-11-02 0 9 0 24 5327
2015-11-03 1 7 0 22 11240
2015-11-04 0 0 0 18 11102
2015-11-05 0 4 0 24 12062
2015-11-06 1 19 0 20 6702
2015-11-07 7 38 0 21 3288
2015-11-08 0 25 0 20 5256
2015-11-09 0 32 0 22 3384
2015-11-10 0 11 0 21 2914
2015-11-11 0 8 0 22 2384
2015-11-12 0 24 0 30 2736
2015-11-13 0 32 0 20 2709
2015-11-14 2 21 1 24 3133
2015-11-15 2 28 0 21 18160
2015-11-16 0 28 0 22 4664
2015-11-17 0 22 0 35 3181
2015-11-18 6 48 1 20 3200
2015-11-19 1 28 0 29 3049
2015-11-20 10 39 2 20 2941
2015-11-21 1 10 0 17 3452
2015-11-22 0 33 0 18 4436
2015-11-23 1 21 1 32 4524
2015-11-24 1 28 0 23 5198
2015-11-25 1 23 0 19 4024
2015-11-26 1 29 0 15 2788
2015-11-27 0 39 0 16 3090
2015-11-28 1 29 0 20 2052
2015-11-29 1 29 0 18 2495
2015-11-30 2 42 0 24 2664
Octobre 2015 32 760 10 84 227528
Septembre 2015 40 948 13 100 169012
2015-09-01 3 40 0 23 4812
2015-09-02 0 52 2 72 5791
2015-09-03 0 21 0 16 4722
2015-09-04 2 20 1 67 4506
2015-09-05 2 40 2 79 8360
2015-09-06 1 58 0 21 4206
2015-09-07 0 27 1 17 3924
2015-09-08 6 44 0 100 9516
2015-09-09 1 26 0 74 6952
2015-09-10 0 37 1 73 5976
2015-09-11 0 43 0 80 7212
2015-09-12 0 23 0 81 5584
2015-09-13 0 30 0 74 5189
2015-09-14 1 25 1 19 3457
2015-09-15 2 18 0 20 2649
2015-09-16 1 23 0 62 4565
2015-09-17 0 10 0 59 5055
2015-09-18 0 36 0 72 4251
2015-09-19 1 36 0 73 4774
2015-09-20 1 41 1 69 4977
2015-09-21 1 23 0 75 11093
2015-09-22 6 28 1 22 3585
2015-09-23 0 33 0 65 5593
2015-09-24 1 42 0 71 5489
2015-09-25 3 24 0 17 3955
2015-09-26 2 25 1 77 5774
2015-09-27 3 47 1 88 6711
2015-09-28 2 34 0 79 7065
2015-09-29 0 6 0 27 5105
2015-09-30 1 36 1 85 8164
Août 2015 36 566 12 61 119954
2015-08-01 2 13 0 18 2717
2015-08-02 0 7 0 13 2055
2015-08-03 7 20 2 15 2199
2015-08-04 1 9 0 40 3590
2015-08-05 0 13 0 16 2911
2015-08-06 0 5 0 14 2574
2015-08-07 0 22 0 17 3967
2015-08-08 0 14 0 17 3023
2015-08-09 5 32 1 18 2992
2015-08-10 2 30 1 17 4088
2015-08-11 1 16 1 15 2652
2015-08-12 3 23 0 16 2544
2015-08-13 0 7 0 14 2436
2015-08-14 0 8 0 55 4945
2015-08-15 1 11 0 52 4116
2015-08-16 0 12 0 13 2678
2015-08-17 0 2 0 54 3352
2015-08-18 0 6 0 49 3473
2015-08-19 0 2 0 29 2985
2015-08-20 1 13 1 19 3315
2015-08-21 0 13 0 54 5973
2015-08-22 0 4 0 13 4672
2015-08-23 3 21 1 21 3708
2015-08-24 2 33 2 19 4048
2015-08-25 1 46 1 25 5182
2015-08-26 0 17 0 18 5281
2015-08-27 0 23 0 28 5761
2015-08-28 1 44 1 17 5899
2015-08-29 0 37 0 43 5544
2015-08-30 1 26 1 43 3953
2015-08-31 5 37 0 61 7321
Juillet 2015 29 462 7 31 89666
Juin 2015 24 453 5 30 112317
Mai 2015 30 390 2 24 73874
2015-05-01 0 17 0 15 2030
2015-05-02 1 16 0 16 2557
2015-05-03 1 29 0 18 2371
2015-05-04 2 17 0 21 1947
2015-05-05 0 2 0 16 1636
2015-05-06 0 8 0 15 2047
2015-05-07 0 6 0 14 2022
2015-05-08 0 3 0 15 1847
2015-05-09 0 5 0 18 1813
2015-05-10 2 5 0 13 1887
2015-05-11 0 6 0 14 1631
2015-05-12 2 20 1 13 2423
2015-05-13 0 11 0 13 2977
2015-05-14 0 11 0 24 3549
2015-05-15 2 11 0 18 2773
2015-05-16 1 3 1 15 2585
2015-05-17 0 6 0 12 2212
2015-05-18 4 29 0 14 2715
2015-05-19 0 8 0 15 1683
2015-05-20 0 3 0 12 1911
2015-05-21 1 4 0 13 2338
2015-05-22 1 8 0 12 1807
2015-05-23 1 6 0 15 2186
2015-05-24 2 15 0 19 4554
2015-05-25 1 21 0 24 2499
2015-05-26 2 20 0 18 2489
2015-05-27 0 21 0 17 1695
2015-05-28 3 38 0 14 2854
2015-05-29 4 23 0 15 4584
2015-05-30 0 13 0 16 1591
2015-05-31 0 5 0 11 2661
Avril 2015 29 408 4 25 95371
Mars 2015 38 550 7 37 130116
2015-03-01 6 23 0 17 2804
2015-03-02 1 11 0 19 6535
2015-03-03 1 24 0 20 7827
2015-03-04 1 8 0 21 6847
2015-03-05 2 12 0 18 4653
2015-03-06 2 23 1 37 2453
2015-03-07 0 10 0 14 2686
2015-03-08 0 19 0 14 2573
2015-03-09 1 20 0 16 2393
2015-03-10 1 14 1 14 2610
2015-03-11 0 8 0 20 2571
2015-03-12 1 14 0 18 2502
2015-03-13 0 16 0 20 3764
2015-03-14 0 8 0 20 4537
2015-03-15 3 22 1 19 5142
2015-03-16 0 8 0 14 2163
2015-03-17 0 16 0 15 1726
2015-03-18 0 2 0 14 1638
2015-03-19 2 12 0 21 4946
2015-03-20 2 14 1 21 7189
2015-03-21 2 27 1 20 9145
2015-03-22 1 11 0 27 8492
2015-03-23 6 18 1 21 6865
2015-03-24 1 23 1 17 4732
2015-03-25 0 36 0 24 3346
2015-03-26 1 33 0 19 3386
2015-03-27 0 12 0 18 3367
2015-03-28 0 8 0 20 4407
2015-03-29 4 47 0 17 4241
2015-03-30 0 38 0 15 2577
2015-03-31 0 13 0 24 1999
Février 2015 15 434 2 24 123854
2015-02-01 1 23 0 15 2764
2015-02-02 4 16 0 19 3123
2015-02-03 0 24 0 19 3982
2015-02-04 0 20 0 20 13958
2015-02-05 0 8 0 15 4445
2015-02-06 2 15 0 17 4092
2015-02-07 0 11 0 17 3923
2015-02-08 0 16 0 15 2919
2015-02-09 0 47 0 18 3036
2015-02-10 0 16 0 17 3314
2015-02-11 0 4 0 15 3212
2015-02-12 0 13 0 18 3091
2015-02-13 0 24 0 15 3570
2015-02-14 2 24 1 16 3435
2015-02-15 4 38 0 16 3932
2015-02-16 1 26 0 15 4563
2015-02-17 0 6 0 15 2297
2015-02-18 0 2 0 12 2335
2015-02-19 0 7 0 17 2509
2015-02-20 0 13 0 14 2356
2015-02-21 0 7 0 22 4319
2015-02-22 0 9 0 21 4162
2015-02-23 0 19 0 19 3587
2015-02-24 0 5 0 18 2084
2015-02-25 0 10 0 16 3096
2015-02-26 0 15 0 21 10939
2015-02-27 0 2 0 24 9803
2015-02-28 1 14 1 22 9008
Janvier 2015 32 490 5 44 121201
2015-01-01 2 23 0 19 3144
2015-01-02 0 16 0 15 4048
2015-01-03 0 15 0 22 3759
2015-01-04 0 4 0 19 3288
2015-01-05 2 20 0 15 4716
2015-01-06 0 5 0 22 4665
2015-01-07 7 37 1 20 4235
2015-01-08 0 17 0 18 5827
2015-01-09 2 10 0 21 3910
2015-01-10 0 16 0 18 3671
2015-01-11 0 8 0 20 4832
2015-01-12 4 17 0 21 3973
2015-01-13 2 14 0 14 2410
2015-01-14 0 16 0 15 3118
2015-01-15 2 38 1 17 3532
2015-01-16 0 23 0 18 3617
2015-01-17 0 13 0 17 2699
2015-01-18 2 13 0 18 3678
2015-01-19 5 16 0 16 3676
2015-01-20 0 12 1 19 3624
2015-01-21 1 12 0 20 2778
2015-01-22 0 8 1 16 6250
2015-01-23 1 18 0 18 2801
2015-01-24 0 14 0 44 3349
2015-01-25 0 8 0 18 6193
2015-01-26 0 25 0 21 4761
2015-01-27 1 23 1 18 6578
2015-01-28 0 4 0 16 2032
2015-01-29 0 15 0 15 3742
2015-01-30 0 16 0 13 2970
2015-01-31 1 14 0 14 3325
* 2014 428 7364 58 58 2478164
Décembre 2014 24 360 4 33 191610
Novembre 2014 37 572 7 46 525858
Octobre 2014 45 928 8 58 364915
2014-10-01 2 17 0 19 4681
2014-10-02 1 19 0 20 4689
2014-10-03 2 14 0 14 3669
2014-10-04 0 5 0 17 3255
2014-10-05 0 1 0 19 2928
2014-10-06 0 11 0 21 3996
2014-10-07 3 25 1 20 3179
2014-10-08 2 38 0 25 5334
2014-10-09 2 52 0 23 6395
2014-10-10 4 54 1 20 5653
2014-10-11 0 14 0 27 6513
2014-10-12 4 38 0 20 4101
2014-10-13 1 60 1 23 7192
2014-10-14 1 40 1 21 5942
2014-10-15 0 50 0 19 8910
2014-10-16 4 67 1 20 7064
2014-10-17 2 59 0 24 7070
2014-10-18 0 8 0 18 8711
2014-10-19 1 18 0 14 7781
2014-10-20 3 75 2 22 5872
2014-10-21 2 43 0 21 6010
2014-10-22 1 17 0 21 7505
2014-10-23 2 34 0 20 6639
2014-10-24 0 22 0 19 8041
2014-10-25 2 16 0 24 10924
2014-10-26 0 21 0 32 24155
2014-10-27 0 16 0 41 31060
2014-10-28 2 11 1 40 35764
2014-10-29 3 46 0 58 43273
2014-10-30 1 31 0 54 39908
2014-10-31 0 6 0 53 38701
Septembre 2014 24 549 8 32 162413
Août 2014 17 251 4 27 191624
Juillet 2014 25 369 3 30 236312
Juin 2014 29 602 3 32 220918
Mai 2014 34 842 6 29 157174
Avril 2014 45 662 1 25 104486
Mars 2014 32 595 4 26 120439
Février 2014 24 660 5 28 102996
Janvier 2014 92 974 5 33 99419
* 2013 408 8887 76 89 1597727
Décembre 2013 36 785 2 79 132305
Novembre 2013 36 751 8 29 141119
Octobre 2013 37 683 10 26 116570
2013-10-01 1 22 0 20 3500
2013-10-02 1 17 0 11 2628
2013-10-03 3 37 0 17 2638
2013-10-04 0 5 0 16 2483
2013-10-05 0 2 1 17 2138
2013-10-06 1 4 1 16 2110
2013-10-07 2 13 0 19 5005
2013-10-08 0 18 0 18 2789
2013-10-09 4 52 0 21 4561
2013-10-10 0 18 0 19 2704
2013-10-11 1 30 0 18 2775
2013-10-12 0 8 1 19 6217
2013-10-13 4 44 2 20 4896
2013-10-14 1 23 0 26 8009
2013-10-15 1 13 1 26 6880
2013-10-16 0 14 0 13 2695
2013-10-17 1 13 0 13 4087
2013-10-18 0 23 0 20 3077
2013-10-19 1 18 0 23 4612
2013-10-20 2 17 0 20 3338
2013-10-21 0 36 0 14 4318
2013-10-22 2 42 2 14 4325
2013-10-23 2 69 0 15 3343
2013-10-24 1 34 0 15 2678
2013-10-25 0 13 0 20 3168
2013-10-26 0 9 0 11 3251
2013-10-27 0 4 1 18 3432
2013-10-28 6 29 0 17 3715
2013-10-29 2 32 0 17 4856
2013-10-30 1 17 1 19 3476
2013-10-31 0 7 0 14 2866
Septembre 2013 33 723 15 29 160779
2013-09-01 0 57 0 19 3222
2013-09-02 2 24 0 21 3211
2013-09-03 1 22 0 19 3225
2013-09-04 2 24 2 21 14311
2013-09-05 1 19 0 17 22207
2013-09-06 3 23 2 21 13976
2013-09-07 1 51 2 24 20435
2013-09-08 1 34 0 24 10968
2013-09-09 0 22 0 18 2939
2013-09-10 2 30 0 18 3194
2013-09-11 1 27 1 18 2264
2013-09-12 2 15 0 17 3642
2013-09-13 0 12 0 19 3775
2013-09-14 2 24 0 20 3850
2013-09-15 0 22 1 19 2626
2013-09-16 0 19 0 13 7428
2013-09-17 1 29 2 16 3178
2013-09-18 3 37 1 20 2878
2013-09-19 0 26 0 25 3592
2013-09-20 0 23 0 20 2807
2013-09-21 1 8 0 18 2488
2013-09-22 0 15 0 12 1533
2013-09-23 0 22 1 23 2729
2013-09-24 0 11 0 25 2352
2013-09-25 2 32 1 29 3227
2013-09-26 2 22 0 26 3451
2013-09-27 1 26 2 19 3427
2013-09-28 4 11 0 22 2817
2013-09-29 1 16 0 12 1720
2013-09-30 0 20 0 22 3307
Août 2013 20 356 4 30 113960
Juillet 2013 21 331 2 24 120164
Juin 2013 40 731 5 34 119512
2013-06-01 1 13 0 17 3096
2013-06-02 1 17 0 18 3028
2013-06-03 1 22 0 16 3372
2013-06-04 1 19 0 19 3324
2013-06-05 0 14 0 23 4819
2013-06-06 0 17 1 19 4481
2013-06-07 1 13 0 18 4526
2013-06-08 1 3 0 15 2042
2013-06-09 2 11 1 15 4963
2013-06-10 3 33 0 18 4947
2013-06-11 4 51 0 17 4344
2013-06-12 2 18 0 16 4209
2013-06-13 3 41 0 19 3396
2013-06-14 0 37 0 17 3142
2013-06-15 1 14 0 15 3196
2013-06-16 3 39 0 19 3462
2013-06-17 2 58 1 21 4811
2013-06-18 0 20 0 18 3636
2013-06-19 3 40 0 17 3088
2013-06-20 0 26 0 15 5656
2013-06-21 0 27 0 19 4727
2013-06-22 4 27 0 16 3816
2013-06-23 0 36 0 16 4764
2013-06-24 1 33 1 34 5519
2013-06-25 0 21 1 18 3850
2013-06-26 1 15 0 22 3883
2013-06-27 2 30 0 21 3739
2013-06-28 2 18 0 17 4453
2013-06-29 1 12 0 17 3440
2013-06-30 0 6 0 21 3783
Mai 2013 34 881 3 47 157484
Avril 2013 38 799 8 33 124279
2013-04-01 4 20 0 24 3359
2013-04-02 1 47 0 21 4467
2013-04-03 0 45 0 23 3233
2013-04-04 0 33 0 16 2834
2013-04-05 0 17 0 19 3016
2013-04-06 2 17 1 21 4302
2013-04-07 1 58 0 33 4201
2013-04-08 0 22 0 17 4107
2013-04-09 3 42 0 18 3737
2013-04-10 1 19 0 16 3054
2013-04-11 2 20 0 18 2700
2013-04-12 2 22 1 17 2910
2013-04-13 0 8 2 17 2288
2013-04-14 0 22 0 16 2273
2013-04-15 0 18 0 20 2553
2013-04-16 2 35 2 23 4161
2013-04-17 3 14 0 15 2830
2013-04-18 0 20 0 21 2765
2013-04-19 0 13 0 22 3929
2013-04-20 1 9 0 17 4630
2013-04-21 3 33 0 15 4446
2013-04-22 5 26 1 18 5097
2013-04-23 1 41 0 26 5957
2013-04-24 2 35 0 21 7277
2013-04-25 1 26 0 22 3866
2013-04-26 1 35 0 22 3466
2013-04-27 1 41 1 19 7601
2013-04-28 1 28 0 26 7931
2013-04-29 1 26 0 19 6992
2013-04-30 0 7 0 18 4297
Mars 2013 40 1111 9 62 147762
2013-03-01 0 12 0 51 6549
2013-03-02 1 13 0 37 4543
2013-03-03 2 43 0 37 3584
2013-03-04 0 47 0 48 5492
2013-03-05 1 28 2 43 10235
2013-03-06 0 23 1 23 5242
2013-03-07 1 25 0 17 2873
2013-03-08 2 34 0 22 3808
2013-03-09 2 35 1 15 3643
2013-03-10 4 41 0 43 3470
2013-03-11 1 26 0 30 4367
2013-03-12 0 34 1 21 4299
2013-03-13 3 59 0 24 4126
2013-03-14 3 38 0 18 4289
2013-03-15 1 63 1 18 4539
2013-03-16 0 26 0 16 3540
2013-03-17 1 34 0 18 3678
2013-03-18 1 70 0 62 5572
2013-03-19 4 21 1 27 3636
2013-03-20 1 43 1 33 6483
2013-03-21 2 43 0 23 5533
2013-03-22 0 29 0 24 4112
2013-03-23 3 17 0 20 3638
2013-03-24 3 68 0 23 4766
2013-03-25 0 41 1 22 8947
2013-03-26 3 50 0 20 6590
2013-03-27 0 39 0 27 3966
2013-03-28 0 37 0 24 5372
2013-03-29 0 42 0 19 5271
2013-03-30 1 17 0 14 2181
2013-03-31 0 13 0 18 3418
Février 2013 32 838 5 79 125299
Janvier 2013 41 898 5 89 138494
* 2012 446 10690 67 157 1274957
Décembre 2012 57 1411 4 45 150137
Novembre 2012 46 1137 8 25 112399
Octobre 2012 45 1068 7 25 80970
2012-10-01 4 36 0 16 2575
2012-10-02 0 19 0 16 2057
2012-10-03 1 21 0 14 1771
2012-10-04 1 15 0 25 2211
2012-10-05 1 6 0 16 1729
2012-10-06 0 3 0 14 1339
2012-10-07 1 25 1 13 1948
2012-10-08 0 43 0 14 3370
2012-10-09 1 36 0 21 2924
2012-10-10 2 46 0 17 2361
2012-10-11 1 54 0 17 3608
2012-10-12 0 22 0 16 1810
2012-10-13 3 37 1 14 2059
2012-10-14 2 57 1 21 2843
2012-10-15 2 67 0 18 2859
2012-10-16 0 35 0 17 2927
2012-10-17 2 68 0 23 3599
2012-10-18 1 42 1 20 2644
2012-10-19 1 60 0 15 2712
2012-10-20 1 18 1 15 2052
2012-10-21 6 55 1 14 2785
2012-10-22 2 43 0 16 2612
2012-10-23 1 35 0 20 2967
2012-10-24 1 22 0 16 2174
2012-10-25 0 23 0 14 2367
2012-10-26 0 25 0 13 2731
2012-10-27 0 4 0 13 2966
2012-10-28 3 43 1 19 4497
2012-10-29 1 31 0 22 3134
2012-10-30 5 43 0 17 2931
2012-10-31 2 34 0 20 2408
Septembre 2012 37 876 11 38 107023
Août 2012 30 595 5 41 95032
2012-08-01 1 10 0 13 3408
2012-08-02 0 21 0 19 2532
2012-08-03 0 19 0 15 2650
2012-08-04 0 3 0 14 1909
2012-08-05 0 5 0 12 1913
2012-08-06 1 18 1 15 2288
2012-08-07 0 13 0 15 2613
2012-08-08 2 12 0 13 3743
2012-08-09 1 27 0 14 3247
2012-08-10 0 14 0 41 3163
2012-08-11 2 20 1 20 2655
2012-08-12 0 22 0 13 2610
2012-08-13 2 54 1 18 3586
2012-08-14 1 22 0 15 3230
2012-08-15 1 15 0 15 2618
2012-08-16 3 23 0 14 3024
2012-08-17 0 7 0 19 3643
2012-08-18 0 4 0 14 2628
2012-08-19 3 17 0 16 3017
2012-08-20 2 20 0 14 3296
2012-08-21 0 12 1 16 3643
2012-08-22 2 14 0 18 3501
2012-08-23 0 26 0 17 3497
2012-08-24 0 14 0 15 3563
2012-08-25 0 23 0 16 3262
2012-08-26 2 15 0 14 3447
2012-08-27 1 23 0 13 3342
2012-08-28 1 4 0 17 2817
2012-08-29 2 22 0 20 3476
2012-08-30 2 67 1 18 3756
2012-08-31 1 29 0 29 2955
Juillet 2012 24 563 2 157 78638
Juin 2012 39 984 10 33 88620
Mai 2012 22 703 5 26 77701
2012-05-01 2 31 0 24 2676
2012-05-02 2 37 0 16 2377
2012-05-03 1 28 0 17 2595
2012-05-04 0 32 0 17 2833
2012-05-05 2 29 1 21 2604
2012-05-06 0 26 0 19 3019
2012-05-07 1 23 0 15 2984
2012-05-08 1 21 0 15 2018
2012-05-09 0 22 0 15 1937
2012-05-10 3 29 1 26 2194
2012-05-11 1 18 0 17 2614
2012-05-12 0 25 0 18 2467
2012-05-13 1 21 0 15 1929
2012-05-14 0 19 0 15 2270
2012-05-15 0 20 0 13 2021
2012-05-16 2 19 1 20 1978
2012-05-17 0 28 0 17 2478
2012-05-18 1 11 0 13 2280
2012-05-19 0 14 0 17 2552
2012-05-20 0 12 0 20 2256
2012-05-21 0 14 0 20 3771
2012-05-22 1 14 0 17 1888
2012-05-23 2 32 1 14 2221
2012-05-24 0 39 1 16 2279
2012-05-25 0 20 0 13 2197
2012-05-26 0 11 0 12 2044
2012-05-27 0 17 0 16 2881
2012-05-28 0 19 0 13 2192
2012-05-29 2 26 0 19 2789
2012-05-30 0 14 0 19 4625
2012-05-31 0 32 0 17 2732
Avril 2012 33 714 4 33 95151
2012-04-01 2 22 0 25 3938
2012-04-02 1 49 0 26 3936
2012-04-03 1 13 0 22 3955
2012-04-04 1 23 1 21 3616
2012-04-05 1 23 0 21 4026
2012-04-06 2 13 0 22 3297
2012-04-07 1 14 1 20 3117
2012-04-08 0 10 0 17 3082
2012-04-09 3 13 0 20 2799
2012-04-10 0 23 0 24 3521
2012-04-11 0 15 0 21 3174
2012-04-12 0 19 0 19 3154
2012-04-13 0 17 0 17 2926
2012-04-14 0 22 1 22 2797
2012-04-15 1 19 0 20 2363
2012-04-16 5 42 0 23 4103
2012-04-17 0 37 0 21 3144
2012-04-18 1 19 0 25 3996
2012-04-19 1 16 0 20 2869
2012-04-20 1 24 0 19 3018
2012-04-21 1 34 0 23 3678
2012-04-22 0 30 0 23 2720
2012-04-23 1 13 0 18 3576
2012-04-24 3 22 0 19 2798
2012-04-25 2 24 0 20 3296
2012-04-26 0 26 0 22 2713
2012-04-27 0 24 0 14 2406
2012-04-28 1 12 0 33 2172
2012-04-29 3 64 1 14 2564
2012-04-30 1 32 0 13 2397
Mars 2012 35 977 5 48 160160
Février 2012 34 704 5 33 117877
Janvier 2012 44 958 1 30 111249
* 2011 822 21877 118 48 1861895
Décembre 2011 68 1315 7 36 141929
Novembre 2011 94 1539 4 36 150015
Octobre 2011 81 1597 13 41 169207
Septembre 2011 96 1991 19 24 158540
2011-09-01 1 105 0 18 4820
2011-09-02 0 44 0 17 3692
2011-09-03 0 35 0 16 3065
2011-09-04 1 39 1 18 3341
2011-09-05 4 67 1 21 3815
2011-09-06 0 37 0 12 5171
2011-09-07 2 64 2 17 7762
2011-09-08 2 83 0 23 7440
2011-09-09 0 103 0 20 8363
2011-09-10 0 27 0 15 6046
2011-09-11 11 96 0 24 5135
2011-09-12 6 137 1 18 5300
2011-09-13 18 102 0 19 6004
2011-09-14 5 57 0 22 4369
2011-09-15 2 43 0 15 3469
2011-09-16 3 88 0 18 5547
2011-09-17 1 43 2 19 4640
2011-09-18 4 42 2 21 5991
2011-09-19 2 80 0 18 5773
2011-09-20 4 66 1 22 6364
2011-09-21 8 83 0 21 5960
2011-09-22 1 47 2 20 4972
2011-09-23 2 43 0 18 4346
2011-09-24 2 44 0 23 3841
2011-09-25 2 62 3 20 4963
2011-09-26 1 65 0 19 4935
2011-09-27 6 66 3 19 4561
2011-09-28 3 108 1 21 5839
2011-09-29 5 77 0 18 7139
2011-09-30 0 38 0 15 5877
Août 2011 68 1372 16 48 135201
2011-08-01 1 53 3 16 3486
2011-08-02 2 33 2 18 3048
2011-08-03 0 24 0 18 2915
2011-08-04 3 25 0 16 2649
2011-08-05 2 35 0 20 3005
2011-08-06 0 17 0 15 2618
2011-08-07 2 23 0 12 3445
2011-08-08 2 63 0 15 3465
2011-08-09 1 29 0 21 2868
2011-08-10 1 35 0 22 2729
2011-08-11 2 42 0 17 2980
2011-08-12 1 57 0 21 3655
2011-08-13 1 15 0 12 1914
2011-08-14 3 11 0 16 2022
2011-08-15 3 26 0 18 3670
2011-08-16 2 32 0 11 9114
2011-08-17 6 40 0 18 8629
2011-08-18 4 50 0 29 6811
2011-08-19 1 27 0 14 4955
2011-08-20 0 16 0 13 2768
2011-08-21 1 20 2 16 2731
2011-08-22 2 76 1 15 4951
2011-08-23 1 73 1 20 7172
2011-08-24 1 36 1 23 5952
2011-08-25 6 106 1 16 7246
2011-08-26 5 112 2 23 8570
2011-08-27 2 52 0 19 5138
2011-08-28 4 46 1 13 3457
2011-08-29 3 83 0 18 4851
2011-08-30 1 48 1 18 4507
2011-08-31 5 67 1 48 3880
Juillet 2011 57 1156 10 30 112626
Juin 2011 40 1214 6 31 149115
Mai 2011 64 1997 8 39 181997
Avril 2011 46 1637 9 38 176986
Mars 2011 54 2388 6 31 211307
2011-03-01 3 122 0 18 6680
2011-03-02 2 125 0 22 7771
2011-03-03 2 101 0 20 6758
2011-03-04 1 42 0 17 4167
2011-03-05 3 23 0 20 4811
2011-03-06 1 22 0 18 6699
2011-03-07 1 42 1 17 6565
2011-03-08 1 37 0 15 7116
2011-03-09 1 39 0 16 10831
2011-03-10 3 77 0 15 19804
2011-03-11 2 61 0 19 12773
2011-03-12 4 51 1 16 5555
2011-03-13 4 68 0 15 5274
2011-03-14 2 115 0 16 5003
2011-03-15 1 92 0 17 6428
2011-03-16 3 212 1 21 9712
2011-03-17 0 120 1 19 5516
2011-03-18 0 109 0 19 3950
2011-03-19 1 32 0 16 3488
2011-03-20 0 56 0 20 3576
2011-03-21 1 81 0 15 6916
2011-03-22 1 58 0 30 6314
2011-03-23 2 95 0 19 8455
2011-03-24 3 147 0 19 6592
2011-03-25 0 66 0 22 9114
2011-03-26 1 15 0 21 4424
2011-03-27 0 24 0 31 4299
2011-03-28 3 77 0 28 5137
2011-03-29 3 92 1 26 4709
2011-03-30 4 104 1 25 5221
2011-03-31 1 83 0 28 7649
Février 2011 59 2656 5 46 128248
Janvier 2011 95 3015 15 44 146724
* 2010 615 23079 70 91 1409620
Décembre 2010 54 2635 5 43 199984
2010-12-01 4 200 0 33 5797
2010-12-02 2 80 0 27 4428
2010-12-03 0 92 0 23 3768
2010-12-04 1 50 1 19 2892
2010-12-05 1 52 0 26 3390
2010-12-06 0 92 0 29 3863
2010-12-07 1 113 0 34 4176
2010-12-08 2 59 0 34 4663
2010-12-09 1 112 1 30 4738
2010-12-10 0 81 0 26 4475
2010-12-11 2 57 0 29 3894
2010-12-12 2 51 0 42 3962
2010-12-13 3 63 0 32 4381
2010-12-14 2 89 0 32 7458
2010-12-15 2 146 0 32 8138
2010-12-16 1 120 0 33 13324
2010-12-17 2 134 0 43 25752
2010-12-18 1 65 0 17 12634
2010-12-19 3 59 0 21 14562
2010-12-20 4 92 1 26 8417
2010-12-21 1 83 1 24 6202
2010-12-22 4 109 0 34 8319
2010-12-23 2 97 0 31 4509
2010-12-24 0 19 0 17 4671
2010-12-25 2 33 0 33 4728
2010-12-26 2 42 0 31 4717
2010-12-27 3 132 1 41 5593
2010-12-28 1 78 0 43 4517
2010-12-29 2 117 0 31 4767
2010-12-30 2 87 0 24 4387
2010-12-31 1 31 0 24 2862
Novembre 2010 59 2475 6 49 127779
Octobre 2010 56 2811 15 58 134942
Septembre 2010 53 1528 8 29 95249
Août 2010 32 1287 6 33 89617
Juillet 2010 34 1637 5 32 97290
Juin 2010 46 2137 3 28 109648
Mai 2010 50 1497 6 28 99050
Avril 2010 45 1888 3 26 102219
Mars 2010 53 1534 2 46 118201
Février 2010 65 1574 4 91 117274
Janvier 2010 68 2076 7 43 118367
* 2009 752 28223 96 159 970278
Décembre 2009 39 2001 5 54 122418
2009-12-01 2 99 0 21 3827
2009-12-02 0 91 0 20 3658
2009-12-03 3 128 0 22 4078
2009-12-04 2 111 0 23 3795
2009-12-05 1 47 1 17 2228
2009-12-06 2 48 0 17 3135
2009-12-07 1 116 1 27 3862
2009-12-08 1 58 0 19 4184
2009-12-09 1 94 0 33 3923
2009-12-10 0 72 0 38 3566
2009-12-11 1 46 0 25 2665
2009-12-12 1 38 0 29 2266
2009-12-13 0 42 0 28 1478
2009-12-14 2 86 0 26 2993
2009-12-15 2 128 0 32 3520
2009-12-16 3 89 0 25 3587
2009-12-17 2 106 0 31 3888
2009-12-18 0 129 0 54 6524
2009-12-19 0 43 0 14 2643
2009-12-20 1 41 0 28 7360
2009-12-21 2 76 0 28 8634
2009-12-22 5 114 1 31 4041
2009-12-23 0 33 0 39 3096
2009-12-24 1 34 0 13 2752
2009-12-25 0 7 0 32 3780
2009-12-26 2 26 0 21 2640
2009-12-27 0 33 1 10 2292
2009-12-28 2 14 1 27 10310
2009-12-29 0 18 0 15 5672
2009-12-30 1 16 0 14 2982
2009-12-31 1 18 0 11 3039
Novembre 2009 59 3138 6 38 117432
Octobre 2009 67 3218 11 18 122232
Septembre 2009 73 2730 14 159 92082
2009-09-01 4 68 1 15 2626
2009-09-02 0 56 0 12 2372
2009-09-03 2 195 2 15 3946
2009-09-04 2 190 0 12 4086
2009-09-05 1 48 1 10 2054
2009-09-06 4 66 0 9 2505
2009-09-07 2 88 0 12 2827
2009-09-08 1 58 0 14 2613
2009-09-09 3 77 2 159 4703
2009-09-10 0 114 0 14 3743
2009-09-11 1 74 0 12 3640
2009-09-12 2 56 0 10 2609
2009-09-13 3 93 0 10 3245
2009-09-14 1 193 1 14 5003
2009-09-15 4 138 1 12 3518
2009-09-16 1 122 0 13 3210
2009-09-17 4 86 2 11 2944
2009-09-18 2 98 0 11 2944
2009-09-19 5 104 2 11 2638
2009-09-20 5 97 0 15 2994
2009-09-21 3 77 0 12 2877
2009-09-22 3 56 0 0 2425
2009-09-23 2 72 0 13 2559
2009-09-24 1 96 0 12 2902
2009-09-25 1 54 0 11 2059
2009-09-26 1 35 0 9 2795
2009-09-27 2 49 0 13 2487
2009-09-28 5 85 0 10 2564
2009-09-29 6 92 0 27 4187
2009-09-30 2 93 2 12 3007
Août 2009 47 1405 8 15 61919
2009-08-01 2 39 0 13 1336
2009-08-02 0 69 0 11 2391
2009-08-03 1 44 0 11 1874
2009-08-04 3 65 0 11 2245
2009-08-05 2 48 0 10 1649
2009-08-06 0 16 0 11 1298
2009-08-07 0 47 1 8 1823
2009-08-08 3 37 1 9 1618
2009-08-09 0 29 0 7 1656
2009-08-10 1 38 0 10 1645
2009-08-11 0 24 0 9 1552
2009-08-12 1 31 0 10 1570
2009-08-13 0 11 0 10 1503
2009-08-14 1 28 1 14 1375
2009-08-15 1 28 0 8 1978
2009-08-16 1 18 0 8 1403
2009-08-17 2 52 0 11 2044
2009-08-18 1 25 0 8 1776
2009-08-19 0 29 0 15 3027
2009-08-20 1 26 0 9 2534
2009-08-21 1 30 0 10 1626
2009-08-22 0 30 0 8 1511
2009-08-23 3 54 0 10 2054
2009-08-24 1 58 0 9 2545
2009-08-25 0 37 0 15 1903
2009-08-26 4 41 1 10 1582
2009-08-27 4 160 2 10 3765
2009-08-28 5 90 2 10 2501
2009-08-29 1 72 0 14 2703
2009-08-30 2 43 0 10 2157
2009-08-31 6 86 0 12 3275
Juillet 2009 68 1737 11 21 67267
Juin 2009 63 2759 4 37 72789
Mai 2009 46 2166 6 16 66386
Avril 2009 101 2850 6 16 73303
Mars 2009 80 3538 7 17 83610
Février 2009 57 1586 6 16 50521
Janvier 2009 52 1095 12 10 40319
* 2008 334 4655 56 26 234055
Décembre 2008 36 663 7 12 28104
2008-12-01 3 30 0 10 1312
2008-12-02 0 30 0 7 1279
2008-12-03 3 41 0 12 1017
2008-12-04 2 33 0 7 1133
2008-12-05 2 40 1 7 1117
2008-12-06 0 7 0 5 831
2008-12-07 1 21 0 5 1053
2008-12-08 1 30 0 8 1116
2008-12-09 2 39 0 8 1045
2008-12-10 0 13 0 6 555
2008-12-11 1 29 2 8 1021
2008-12-12 0 29 1 9 1230
2008-12-13 2 32 0 11 1196
2008-12-14 3 17 1 8 973
2008-12-15 1 21 0 9 868
2008-12-16 3 51 1 9 1403
2008-12-17 0 19 1 7 950
2008-12-18 1 7 0 10 889
2008-12-19 0 26 0 8 1051
2008-12-20 2 19 0 8 964
2008-12-21 2 20 0 5 722
2008-12-22 0 10 0 5 689
2008-12-23 0 22 0 8 909
2008-12-24 0 8 0 4 427
2008-12-25 0 11 0 5 344
2008-12-26 2 17 0 6 566
2008-12-27 0 2 0 5 628
2008-12-28 1 8 0 5 684
2008-12-29 1 9 0 5 880
2008-12-30 1 8 0 5 575
2008-12-31 2 14 0 6 677
Novembre 2008 51 1090 9 10 35948
Octobre 2008 50 609 5 10 26582
Septembre 2008 40 619 5 10 24365
Août 2008 28 252 6 9 21916
Juillet 2008 20 256 5 7 16733
Juin 2008 17 363 6 26 18903
Mai 2008 17 180 2 10 13320
2008-05-01 0 2 0 3 298
2008-05-02 0 7 0 3 301
2008-05-03 0 2 0 3 238
2008-05-04 0 2 0 4 802
2008-05-05 1 4 0 3 331
2008-05-06 0 6 0 0 392
2008-05-07 0 2 0 4 358
2008-05-08 0 1 0 2 277
2008-05-09 0 5 1 4 290
2008-05-10 0 2 0 3 288
2008-05-11 1 2 0 2 369
2008-05-12 1 6 0 5 569
2008-05-13 1 10 0 5 595
2008-05-14 0 16 1 4 626
2008-05-15 3 13 0 0 742
2008-05-16 0 7 0 5 526
2008-05-17 1 7 0 5 478
2008-05-18 0 3 0 4 760
2008-05-19 0 4 0 4 495
2008-05-20 1 5 0 3 347
2008-05-21 0 12 0 4 459
2008-05-22 0 4 0 5 505
2008-05-23 0 3 0 3 360
2008-05-24 1 8 0 4 308
2008-05-25 0 5 0 2 261
2008-05-26 0 7 0 3 260
2008-05-27 0 3 0 10 398
2008-05-28 3 8 0 7 411
2008-05-29 0 5 0 5 350
2008-05-30 1 9 0 0 574
2008-05-31 3 10 0 5 352
Avril 2008 16 146 3 8 16063
Mars 2008 18 158 1 9 12835
2008-03-01 0 0 0 4 340
2008-03-02 2 5 0 0 302
2008-03-03 1 2 0 5 326
2008-03-04 0 2 0 5 294
2008-03-05 1 4 0 3 278
2008-03-06 2 16 0 5 449
2008-03-07 0 14 0 4 449
2008-03-08 1 4 0 0 354
2008-03-09 3 11 0 7 535
2008-03-10 0 2 0 0 368
2008-03-11 1 10 1 7 495
2008-03-12 0 6 0 5 471
2008-03-13 1 5 0 5 382
2008-03-14 0 10 0 7 498
2008-03-15 0 3 0 0 356
2008-03-16 0 4 0 4 344
2008-03-17 0 4 0 6 392
2008-03-18 0 0 0 0 304
2008-03-19 0 6 0 4 239
2008-03-20 0 4 0 3 192
2008-03-21 0 7 0 7 261
2008-03-22 0 0 0 4 319
2008-03-23 3 6 0 4 365
2008-03-24 1 10 0 6 495
2008-03-25 1 7 0 6 353
2008-03-26 0 3 0 3 375
2008-03-27 0 1 0 5 223
2008-03-28 0 2 0 6 979
2008-03-29 0 3 0 3 855
2008-03-30 0 0 0 7 632
2008-03-31 1 7 0 9 610
Février 2008 19 155 2 9 9679
Janvier 2008 22 164 5 7 9607
* 2007 276 2246 55 9 102999
Décembre 2007 21 167 5 8 17081
2007-12-01 0 1 0 4 239
2007-12-02 0 2 0 4 264
2007-12-03 1 5 0 4 262
2007-12-04 0 1 0 4 266
2007-12-05 0 0 0 3 201
2007-12-06 0 2 0 4 226
2007-12-07 0 12 0 0 371
2007-12-08 1 3 0 4 451
2007-12-09 2 8 0 4 2230
2007-12-10 2 13 1 5 405
2007-12-11 0 5 1 4 312
2007-12-12 1 10 0 4 317
2007-12-13 0 2 0 0 258
2007-12-14 1 7 0 4 254
2007-12-15 2 6 0 3 303
2007-12-16 0 4 0 3 248
2007-12-17 1 6 0 4 267
2007-12-18 0 1 0 0 233
2007-12-19 2 7 0 3 285
2007-12-20 0 4 1 0 262
2007-12-21 0 3 1 8 313
2007-12-22 4 12 0 5 568
2007-12-23 0 10 0 4 406
2007-12-24 1 7 1 3 4210
2007-12-25 1 9 0 3 296
2007-12-26 0 11 0 5 383
2007-12-27 0 5 0 4 331
2007-12-28 1 6 0 0 326
2007-12-29 1 1 0 0 221
2007-12-30 0 1 0 2 2196
2007-12-31 0 3 0 2 177
Novembre 2007 20 168 3 6 8467
2007-11-01 0 5 1 2 280
2007-11-02 1 6 0 4 251
2007-11-03 2 8 0 4 329
2007-11-04 1 2 0 5 308
2007-11-05 2 15 0 0 391
2007-11-06 1 2 0 6 298
2007-11-07 1 5 0 0 259
2007-11-08 0 5 0 4 263
2007-11-09 0 7 0 4 188
2007-11-10 0 4 0 2 164
2007-11-11 0 2 0 0 198
2007-11-12 0 6 0 4 191
2007-11-13 0 0 0 0 201
2007-11-14 1 5 0 0 202
2007-11-15 1 2 0 3 263
2007-11-16 1 6 0 4 383
2007-11-17 0 4 0 3 239
2007-11-18 0 4 1 4 290
2007-11-19 0 6 0 0 190
2007-11-20 0 6 0 3 271
2007-11-21 1 7 0 4 287
2007-11-22 2 11 0 4 294
2007-11-23 0 8 1 5 508
2007-11-24 2 6 0 3 376
2007-11-25 0 3 0 2 239
2007-11-26 1 6 0 3 283
2007-11-27 0 5 0 5 349
2007-11-28 1 2 0 4 242
2007-11-29 1 6 0 4 278
2007-11-30 1 14 0 0 452
Octobre 2007 21 147 4 5 8193
2007-10-01 3 12 0 3 329
2007-10-02 0 6 0 4 319
2007-10-03 0 3 0 4 296
2007-10-04 2 10 0 3 310
2007-10-05 0 4 0 4 289
2007-10-06 0 0 0 3 208
2007-10-07 1 2 0 5 203
2007-10-08 1 9 1 4 335
2007-10-09 1 3 0 0 267
2007-10-10 1 7 1 3 300
2007-10-11 0 3 0 4 241
2007-10-12 0 2 0 5 251
2007-10-13 1 3 0 3 247
2007-10-14 0 0 0 3 152
2007-10-15 1 3 0 4 225
2007-10-16 0 2 0 2 145
2007-10-17 3 14 0 5 384
2007-10-18 1 5 0 0 378
2007-10-19 1 3 0 0 261
2007-10-20 0 2 0 3 226
2007-10-21 0 7 0 5 265
2007-10-22 0 0 0 3 197
2007-10-23 0 0 0 0 211
2007-10-24 1 2 0 3 164
2007-10-25 0 0 0 4 162
2007-10-26 1 2 0 4 138
2007-10-27 0 0 0 2 243
2007-10-28 2 3 1 4 239
2007-10-29 0 5 0 3 225
2007-10-30 1 20 1 5 587
2007-10-31 0 15 0 0 396
Septembre 2007 22 183 4 9 9896
2007-09-01 1 6 0 4 255
2007-09-02 1 7 1 3 302
2007-09-03 2 13 0 5 572
2007-09-04 1 15 1 9 508
2007-09-05 1 4 1 7 396
2007-09-06 1 23 0 6 618
2007-09-07 1 9 1 0 426
2007-09-08 0 5 0 4 308
2007-09-09 0 2 0 5 280
2007-09-10 1 8 0 0 334
2007-09-11 5 17 0 6 584
2007-09-12 0 3 0 7 335
2007-09-13 0 2 0 8 430
2007-09-14 0 3 0 3 253
2007-09-15 0 1 0 2 169
2007-09-16 0 0 0 3 139
2007-09-17 0 3 0 4 258
2007-09-18 0 1 0 5 289
2007-09-19 1 8 0 4 366
2007-09-20 1 4 0 3 258
2007-09-21 1 5 0 3 285
2007-09-22 0 5 0 7 259
2007-09-23 1 2 0 3 272
2007-09-24 0 8 0 4 304
2007-09-25 1 3 0 3 367
2007-09-26 1 5 0 4 246
2007-09-27 0 2 0 4 261
2007-09-28 0 4 0 4 291
2007-09-29 2 11 0 4 373
2007-09-30 0 4 0 0 158
Août 2007 23 226 2 6 9096
Juillet 2007 18 127 1 4 10165
Juin 2007 25 309 2 6 13196
2007-06-01 0 30 0 5 730
2007-06-02 1 3 0 5 231
2007-06-03 0 4 0 4 155
2007-06-04 2 22 0 5 514
2007-06-05 0 19 0 0 547
2007-06-06 1 7 0 5 383
2007-06-07 0 8 1 0 407
2007-06-08 0 6 0 6 413
2007-06-09 2 10 0 3 371
2007-06-10 0 4 1 3 247
2007-06-11 1 6 0 4 306
2007-06-12 2 11 0 3 298
2007-06-13 5 20 0 6 533
2007-06-14 0 11 0 4 388
2007-06-15 2 22 0 0 499
2007-06-16 1 3 0 4 249
2007-06-17 0 2 0 3 349
2007-06-18 0 9 0 5 414
2007-06-19 0 5 0 0 344
2007-06-20 0 10 0 0 450
2007-06-21 2 11 0 4 450
2007-06-22 0 3 0 0 439
2007-06-23 0 6 0 4 447
2007-06-24 2 5 0 3 351
2007-06-25 0 3 0 4 532
2007-06-26 2 16 0 3 751
2007-06-27 0 15 0 4 611
2007-06-28 1 7 0 0 557
2007-06-29 0 21 0 5 717
2007-06-30 1 10 0 0 513
Mai 2007 30 315 8 7 11830
2007-05-01 1 4 0 3 287
2007-05-02 1 6 0 4 196
2007-05-03 0 15 0 4 377
2007-05-04 0 6 0 3 271
2007-05-05 1 5 1 6 235
2007-05-06 0 6 1 3 344
2007-05-07 3 19 0 5 507
2007-05-08 1 14 0 6 449
2007-05-09 0 14 0 4 339
2007-05-10 1 9 1 4 472
2007-05-11 1 18 0 4 499
2007-05-12 3 8 0 5 354
2007-05-13 1 10 0 4 358
2007-05-14 4 25 0 7 643
2007-05-15 0 22 1 4 517
2007-05-16 0 14 0 3 354
2007-05-17 0 3 0 4 229
2007-05-18 0 4 0 5 356
2007-05-19 1 6 0 5 346
2007-05-20 2 14 0 5 515
2007-05-21 2 18 0 6 530
2007-05-22 0 13 1 5 424
2007-05-23 2 11 1 4 427
2007-05-24 0 7 0 3 276
2007-05-25 1 9 0 3 488
2007-05-26 0 3 0 4 251
2007-05-27 3 5 0 3 276
2007-05-28 0 4 2 4 451
2007-05-29 1 11 0 5 439
2007-05-30 0 5 0 4 316
2007-05-31 1 7 0 4 304
Avril 2007 44 428 13 9 13382
2007-04-01 0 21 1 4 390
2007-04-02 4 25 0 6 522
2007-04-03 4 21 1 6 568
2007-04-04 3 41 1 8 1017
2007-04-05 2 58 0 6 1236
2007-04-06 1 29 0 6 771
2007-04-07 2 16 1 4 539
2007-04-08 0 6 0 3 243
2007-04-09 2 12 0 6 273
2007-04-10 0 6 0 6 265
2007-04-11 1 7 0 8 508
2007-04-12 1 4 1 8 599
2007-04-13 1 8 1 9 612
2007-04-14 1 2 0 4 309
2007-04-15 0 5 0 5 135
2007-04-16 0 11 0 4 467
2007-04-17 0 4 1 4 250
2007-04-18 1 8 0 7 274
2007-04-19 6 17 0 6 489
2007-04-20 1 23 1 5 463
2007-04-21 1 9 0 6 307
2007-04-22 1 11 2 4 277
2007-04-23 2 10 1 6 377
2007-04-24 1 22 0 5 524
2007-04-25 2 17 1 6 389
2007-04-26 3 12 0 6 502
2007-04-27 1 11 0 4 361
2007-04-28 2 3 0 3 172
2007-04-29 0 8 1 5 310
2007-04-30 1 1 0 5 233
Mars 2007 52 176 13 4 1693